Time,TemperatureF,DewpointF,PressureIn,WindDirection,WindDirectionDegrees,WindSpeedMPH,WindSpeedGustMPH,Humidity,HourlyPrecipIn,Conditions,Clouds,dailyrainin,SoftwareType,DateUTC
2013-02-24 00:00:00,29.1,27.1,28.93,East,81,0.0,5.0,92,0.00,,,0.00,meteohub,2013-02-24 05:00:00,
2013-02-24 00:02:00,29.1,27.1,28.93,ENE,74,0.0,5.0,92,0.00,,,0.00,meteohub,2013-02-24 05:02:00,
2013-02-24 00:03:00,29.1,27.1,28.93,ENE,74,0.0,5.0,92,0.00,,,0.00,meteohub,2013-02-24 05:03:00,
2013-02-24 00:06:00,29.1,27.1,28.93,East,80,0.0,5.0,92,0.00,,,0.00,meteohub,2013-02-24 05:06:00,
2013-02-24 00:07:00,29.1,27.1,28.93,East,84,0.0,5.0,92,0.00,,,0.00,meteohub,2013-02-24 05:07:00,
2013-02-24 00:08:00,29.1,27.1,28.93,East,80,0.0,5.0,92,0.00,,,0.00,meteohub,2013-02-24 05:08:00,
2013-02-24 00:11:00,29.1,27.1,28.93,East,88,2.0,5.0,92,0.00,,,0.00,meteohub,2013-02-24 05:11:00,
2013-02-24 00:12:00,29.1,27.1,28.93,East,82,3.0,5.0,92,0.00,,,0.00,meteohub,2013-02-24 05:12:00,
2013-02-24 00:13:00,29.1,27.1,28.93,NNE,33,3.0,5.0,92,0.00,,,0.00,meteohub,2013-02-24 05:13:00,
2013-02-24 00:16:00,29.1,27.1,28.93,East,98,3.0,9.0,92,0.00,,,0.00,meteohub,2013-02-24 05:16:00,
2013-02-24 00:17:00,29.1,27.1,28.93,South,186,1.0,9.0,92,0.00,,,0.00,meteohub,2013-02-24 05:17:00,
2013-02-24 00:19:00,29.1,27.1,28.93,ENE,74,1.0,9.0,92,0.00,,,0.00,meteohub,2013-02-24 05:19:00,
2013-02-24 00:22:00,29.1,27.1,28.93,ENE,74,2.0,9.0,92,0.00,,,0.00,meteohub,2013-02-24 05:22:00,
2013-02-24 00:24:00,29.1,27.1,28.93,ENE,75,0.0,9.0,92,0.00,,,0.00,meteohub,2013-02-24 05:24:00,
2013-02-24 00:26:00,29.1,27.1,28.93,ENE,76,0.0,9.0,92,0.00,,,0.00,meteohub,2013-02-24 05:26:00,
2013-02-24 00:28:00,29.1,27.1,28.93,ENE,76,0.0,9.0,92,0.00,,,0.00,meteohub,2013-02-24 05:28:00,
2013-02-24 00:29:00,29.1,27.1,28.93,ENE,75,0.0,9.0,92,0.00,,,0.00,meteohub,2013-02-24 05:29:00,
2013-02-24 00:30:00,29.1,27.1,28.93,ENE,76,1.0,9.0,92,0.00,,,0.00,meteohub,2013-02-24 05:30:00,
2013-02-24 00:32:00,29.1,27.1,28.92,ENE,69,1.0,6.0,92,0.00,,,0.00,meteohub,2013-02-24 05:32:00,
2013-02-24 00:34:00,29.1,27.1,28.92,NE,43,0.0,6.0,92,0.00,,,0.00,meteohub,2013-02-24 05:34:00,
2013-02-24 00:35:00,29.1,27.1,28.93,NE,43,0.0,4.0,92,0.00,,,0.00,meteohub,2013-02-24 05:35:00,
2013-02-24 00:38:00,29.1,27.1,28.93,SE,145,0.0,4.0,92,0.00,,,0.00,meteohub,2013-02-24 05:38:00,
2013-02-24 00:39:00,29.1,27.1,28.92,SE,125,0.0,4.0,92,0.00,,,0.00,meteohub,2013-02-24 05:39:00,
2013-02-24 00:40:00,29.1,27.1,28.92,SE,125,0.0,4.0,92,0.00,,,0.00,meteohub,2013-02-24 05:40:00,
2013-02-24 00:44:00,29.1,27.1,28.92,South,178,0.0,4.0,92,0.00,,,0.00,meteohub,2013-02-24 05:44:00,
2013-02-24 00:45:00,29.1,27.1,28.92,SSE,154,0.0,4.0,92,0.00,,,0.00,meteohub,2013-02-24 05:45:00,
2013-02-24 00:46:00,29.1,27.1,28.92,NNE,33,1.0,4.0,92,0.00,,,0.00,meteohub,2013-02-24 05:46:00,
2013-02-24 00:50:00,29.1,27.1,28.92,SSW,208,0.0,4.0,92,0.00,,,0.00,meteohub,2013-02-24 05:50:00,
2013-02-24 00:52:00,29.1,27.1,28.92,ESE,107,0.0,4.0,92,0.00,,,0.00,meteohub,2013-02-24 05:52:00,
2013-02-24 00:54:00,29.1,27.1,28.92,ESE,107,0.0,4.0,92,0.00,,,0.00,meteohub,2013-02-24 05:54:00,
2013-02-24 00:56:00,29.1,27.1,28.92,WNW,297,1.0,3.0,92,0.00,,,0.00,meteohub,2013-02-24 05:56:00,
2013-02-24 00:58:00,29.1,27.1,28.92,South,186,0.0,3.0,92,0.00,,,0.00,meteohub,2013-02-24 05:58:00,
2013-02-24 01:00:00,29.1,27.1,28.92,North,355,0.0,3.0,92,0.00,,,0.00,meteohub,2013-02-24 06:00:00,
2013-02-24 01:03:00,29.1,27.1,28.92,East,88,0.0,3.0,92,0.00,,,0.00,meteohub,2013-02-24 06:03:00,
2013-02-24 01:04:00,29.1,27.1,28.92,ESE,102,0.0,3.0,92,0.00,,,0.00,meteohub,2013-02-24 06:04:00,
2013-02-24 01:05:00,29.1,27.1,28.91,SE,126,0.0,3.0,92,0.00,,,0.00,meteohub,2013-02-24 06:05:00,
2013-02-24 01:08:00,29.1,27.1,28.91,ENE,78,1.0,3.0,92,0.00,,,0.00,meteohub,2013-02-24 06:08:00,
2013-02-24 01:09:00,29.1,27.1,28.91,ENE,67,2.0,3.0,92,0.00,,,0.00,meteohub,2013-02-24 06:09:00,
2013-02-24 01:11:00,29.1,27.1,28.91,ENE,68,1.0,3.0,92,0.00,,,0.00,meteohub,2013-02-24 06:11:00,
2013-02-24 01:12:00,29.1,27.1,28.91,ENE,67,0.0,3.0,92,0.00,,,0.00,meteohub,2013-02-24 06:12:00,
2013-02-24 01:14:00,29.1,27.1,28.91,East,85,0.0,3.0,92,0.00,,,0.00,meteohub,2013-02-24 06:14:00,
2013-02-24 01:15:00,29.1,27.1,28.91,East,83,0.0,4.0,92,0.00,,,0.00,meteohub,2013-02-24 06:15:00,
2013-02-24 01:16:00,29.1,27.1,28.91,East,83,0.0,4.0,92,0.00,,,0.00,meteohub,2013-02-24 06:16:00,
2013-02-24 01:17:00,29.1,27.1,28.91,East,85,0.0,4.0,92,0.00,,,0.00,meteohub,2013-02-24 06:17:00,
2013-02-24 01:20:00,29.1,27.1,28.91,ENE,69,1.0,4.0,92,0.00,,,0.00,meteohub,2013-02-24 06:20:00,
2013-02-24 01:22:00,29.1,27.1,28.91,ENE,63,0.0,4.0,92,0.00,,,0.00,meteohub,2013-02-24 06:22:00,
2013-02-24 01:23:00,29.1,27.1,28.91,ENE,66,0.0,4.0,92,0.00,,,0.00,meteohub,2013-02-24 06:23:00,
2013-02-24 01:24:00,29.1,27.1,28.91,East,87,2.0,4.0,92,0.00,,,0.00,meteohub,2013-02-24 06:24:00,
2013-02-24 01:25:00,29.1,27.1,28.91,East,95,2.0,4.0,92,0.00,,,0.00,meteohub,2013-02-24 06:25:00,
2013-02-24 01:27:00,29.1,27.1,28.91,ESE,104,0.0,4.0,92,0.00,,,0.00,meteohub,2013-02-24 06:27:00,
2013-02-24 01:29:00,29.1,27.1,28.91,ENE,62,0.0,4.0,92,0.00,,,0.00,meteohub,2013-02-24 06:29:00,
2013-02-24 01:30:00,29.1,27.1,28.91,ENE,63,0.0,4.0,92,0.00,,,0.00,meteohub,2013-02-24 06:30:00,
2013-02-24 01:31:00,29.1,27.1,28.91,SSE,149,0.0,5.0,92,0.00,,,0.00,meteohub,2013-02-24 06:31:00,
2013-02-24 01:32:00,29.1,27.1,28.91,SSE,149,0.0,5.0,92,0.00,,,0.00,meteohub,2013-02-24 06:32:00,
2013-02-24 01:36:00,29.1,27.1,28.91,East,82,1.0,5.0,92,0.00,,,0.00,meteohub,2013-02-24 06:36:00,
2013-02-24 01:37:00,29.1,27.1,28.91,East,83,1.0,5.0,92,0.00,,,0.00,meteohub,2013-02-24 06:37:00,
2013-02-24 01:42:00,29.1,27.1,28.91,East,82,1.0,5.0,92,0.00,,,0.00,meteohub,2013-02-24 06:42:00,
2013-02-24 01:43:00,29.1,27.1,28.91,East,86,2.0,5.0,92,0.00,,,0.00,meteohub,2013-02-24 06:43:00,
2013-02-24 01:46:00,29.1,27.1,28.91,East,80,0.0,5.0,92,0.00,,,0.00,meteohub,2013-02-24 06:46:00,
2013-02-24 01:47:00,29.1,27.1,28.91,East,80,0.0,5.0,92,0.00,,,0.00,meteohub,2013-02-24 06:47:00,
2013-02-24 01:48:00,29.1,27.1,28.91,East,80,0.0,5.0,92,0.00,,,0.00,meteohub,2013-02-24 06:48:00,
2013-02-24 01:51:00,29.1,27.1,28.91,ENE,78,0.0,5.0,92,0.00,,,0.00,meteohub,2013-02-24 06:51:00,
2013-02-24 01:52:00,29.1,27.1,28.91,East,80,0.0,5.0,92,0.00,,,0.00,meteohub,2013-02-24 06:52:00,
2013-02-24 01:54:00,29.1,27.1,28.91,ENE,69,1.0,5.0,92,0.00,,,0.00,meteohub,2013-02-24 06:54:00,
2013-02-24 01:55:00,29.1,27.1,28.90,South,171,0.0,5.0,92,0.00,,,0.00,meteohub,2013-02-24 06:55:00,
2013-02-24 01:57:00,29.1,27.1,28.90,South,171,0.0,4.0,92,0.00,,,0.00,meteohub,2013-02-24 06:57:00,
2013-02-24 01:59:00,29.1,27.1,28.90,South,173,0.0,4.0,92,0.00,,,0.00,meteohub,2013-02-24 06:59:00,
2013-02-24 02:00:00,29.1,27.1,28.90,South,173,0.0,4.0,92,0.00,,,0.00,meteohub,2013-02-24 07:00:00,
2013-02-24 02:03:00,29.1,27.1,28.90,East,101,2.0,4.0,92,0.00,,,0.00,meteohub,2013-02-24 07:03:00,
2013-02-24 02:05:00,29.1,27.1,28.90,ENE,70,1.0,4.0,92,0.00,,,0.00,meteohub,2013-02-24 07:05:00,
2013-02-24 02:07:00,29.1,27.1,28.90,NE,51,1.0,4.0,92,0.00,,,0.00,meteohub,2013-02-24 07:07:00,
2013-02-24 02:09:00,29.1,27.1,28.90,NE,52,0.0,4.0,92,0.00,,,0.00,meteohub,2013-02-24 07:09:00,
2013-02-24 02:10:00,29.1,27.1,28.90,NE,52,0.0,3.0,92,0.00,,,0.00,meteohub,2013-02-24 07:10:00,
2013-02-24 02:11:00,29.1,27.1,28.90,NE,53,0.0,3.0,92,0.00,,,0.00,meteohub,2013-02-24 07:11:00,
2013-02-24 02:12:00,29.1,27.1,28.90,ENE,70,2.0,3.0,92,0.00,,,0.00,meteohub,2013-02-24 07:12:00,
2013-02-24 02:14:00,29.1,27.1,28.90,ENE,70,0.0,3.0,92,0.00,,,0.00,meteohub,2013-02-24 07:14:00,
2013-02-24 02:17:00,29.1,26.8,28.89,ENE,70,0.0,3.0,91,0.00,,,0.00,meteohub,2013-02-24 07:17:00,
2013-02-24 02:18:00,29.1,26.8,28.90,ENE,70,0.0,3.0,91,0.00,,,0.00,meteohub,2013-02-24 07:18:00,
2013-02-24 02:20:00,29.3,27.0,28.89,ENE,62,2.0,3.0,91,0.00,,,0.00,meteohub,2013-02-24 07:20:00,
2013-02-24 02:23:00,29.3,27.0,28.89,ENE,59,2.0,3.0,91,0.00,,,0.00,meteohub,2013-02-24 07:23:00,
2013-02-24 02:24:00,29.3,27.0,28.89,ENE,59,2.0,3.0,91,0.00,,,0.00,meteohub,2013-02-24 07:24:00,
2013-02-24 02:25:00,29.1,26.8,28.89,ENE,59,0.0,3.0,91,0.00,,,0.00,meteohub,2013-02-24 07:25:00,
2013-02-24 02:29:00,29.1,26.8,28.88,ENE,59,3.0,3.0,91,0.00,,,0.00,meteohub,2013-02-24 07:29:00,
2013-02-24 02:30:00,29.3,27.0,28.88,ENE,61,1.0,3.0,91,0.00,,,0.00,meteohub,2013-02-24 07:30:00,
2013-02-24 02:32:00,29.3,27.3,28.88,ENE,68,2.0,3.0,92,0.00,,,0.00,meteohub,2013-02-24 07:32:00,
2013-02-24 02:36:00,29.1,26.8,28.88,ENE,69,0.0,3.0,91,0.00,,,0.00,meteohub,2013-02-24 07:36:00,
2013-02-24 02:37:00,29.1,26.8,28.88,ENE,69,0.0,3.0,91,0.00,,,0.00,meteohub,2013-02-24 07:37:00,
2013-02-24 02:39:00,29.1,26.8,28.88,ENE,69,0.0,3.0,91,0.00,,,0.00,meteohub,2013-02-24 07:39:00,
2013-02-24 02:41:00,29.1,26.8,28.87,ENE,69,0.0,3.0,91,0.00,,,0.00,meteohub,2013-02-24 07:41:00,
2013-02-24 02:42:00,29.1,26.8,28.87,ENE,69,0.0,3.0,91,0.00,,,0.00,meteohub,2013-02-24 07:42:00,
2013-02-24 02:45:00,29.1,26.8,28.87,ENE,69,1.0,3.0,91,0.00,,,0.00,meteohub,2013-02-24 07:45:00,
2013-02-24 02:47:00,28.9,27.0,28.87,ENE,69,0.0,3.0,92,0.00,,,0.00,meteohub,2013-02-24 07:47:00,
2013-02-24 02:48:00,28.9,27.0,28.87,ENE,69,1.0,3.0,92,0.00,,,0.00,meteohub,2013-02-24 07:48:00,
2013-02-24 02:50:00,28.9,27.0,28.87,ENE,63,2.0,3.0,92,0.00,,,0.00,meteohub,2013-02-24 07:50:00,
2013-02-24 02:52:00,28.9,27.0,28.87,NE,54,1.0,2.0,92,0.00,,,0.00,meteohub,2013-02-24 07:52:00,
2013-02-24 02:53:00,28.9,27.0,28.87,NE,54,1.0,2.0,92,0.00,,,0.00,meteohub,2013-02-24 07:53:00,
2013-02-24 02:54:00,28.8,26.8,28.87,NE,54,0.0,2.0,92,0.00,,,0.00,meteohub,2013-02-24 07:54:00,
2013-02-24 02:55:00,28.8,26.8,28.87,NE,54,0.0,2.0,92,0.00,,,0.00,meteohub,2013-02-24 07:55:00,
2013-02-24 02:57:00,28.8,26.8,28.87,NE,54,1.0,2.0,92,0.00,,,0.00,meteohub,2013-02-24 07:57:00,
2013-02-24 03:00:00,28.8,26.8,28.87,NE,54,1.0,2.0,92,0.00,,,0.00,meteohub,2013-02-24 08:00:00,
2013-02-24 03:03:00,28.8,27.0,28.87,NE,54,0.0,2.0,93,0.00,,,0.00,meteohub,2013-02-24 08:03:00,
2013-02-24 03:05:00,28.8,27.0,28.87,NE,54,0.0,2.0,93,0.00,,,0.00,meteohub,2013-02-24 08:05:00,
2013-02-24 03:06:00,28.8,27.0,28.87,NE,54,0.0,2.0,93,0.00,,,0.00,meteohub,2013-02-24 08:06:00,
2013-02-24 03:08:00,28.8,27.0,28.87,NE,54,0.0,2.0,93,0.00,,,0.00,meteohub,2013-02-24 08:08:00,
2013-02-24 03:09:00,28.8,27.0,28.86,NE,54,4.0,4.0,93,0.00,,,0.00,meteohub,2013-02-24 08:09:00,
2013-02-24 03:11:00,28.8,27.0,28.86,NE,54,0.0,4.0,93,0.00,,,0.00,meteohub,2013-02-24 08:11:00,
2013-02-24 03:12:00,28.8,27.0,28.86,NE,54,0.0,4.0,93,0.00,,,0.00,meteohub,2013-02-24 08:12:00,
2013-02-24 03:15:00,28.8,27.0,28.86,NE,54,2.0,4.0,93,0.00,,,0.00,meteohub,2013-02-24 08:15:00,
2013-02-24 03:17:00,28.9,27.1,28.86,NE,54,0.0,4.0,93,0.00,,,0.00,meteohub,2013-02-24 08:17:00,
2013-02-24 03:18:00,28.9,27.1,28.86,NE,54,0.0,4.0,93,0.00,,,0.00,meteohub,2013-02-24 08:18:00,
2013-02-24 03:20:00,28.9,27.1,28.86,NE,54,1.0,4.0,93,0.00,,,0.00,meteohub,2013-02-24 08:20:00,
2013-02-24 03:21:00,28.9,27.1,28.86,NE,54,0.0,4.0,93,0.00,,,0.00,meteohub,2013-02-24 08:21:00,
2013-02-24 03:23:00,28.9,27.1,28.86,NE,54,0.0,4.0,93,0.00,,,0.00,meteohub,2013-02-24 08:23:00,
2013-02-24 03:24:00,29.1,27.3,28.86,NE,54,1.0,4.0,93,0.00,,,0.00,meteohub,2013-02-24 08:24:00,
2013-02-24 03:26:00,29.1,27.3,28.85,North,11,2.0,4.0,93,0.00,,,0.00,meteohub,2013-02-24 08:26:00,
2013-02-24 03:30:00,29.3,27.3,28.86,North,11,0.0,4.0,92,0.00,,,0.00,meteohub,2013-02-24 08:30:00,
2013-02-24 03:31:00,29.3,27.3,28.86,North,11,2.0,4.0,92,0.00,,,0.00,meteohub,2013-02-24 08:31:00,
2013-02-24 03:33:00,29.5,27.5,28.85,North,11,0.0,4.0,92,0.00,,,0.00,meteohub,2013-02-24 08:33:00,
2013-02-24 03:35:00,29.5,27.5,28.86,North,11,0.0,4.0,92,0.00,,,0.00,meteohub,2013-02-24 08:35:00,
2013-02-24 03:36:00,29.5,27.5,28.85,North,11,2.0,4.0,92,0.00,,,0.00,meteohub,2013-02-24 08:36:00,
2013-02-24 03:38:00,29.5,27.5,28.86,NNE,12,0.0,4.0,92,0.00,,,0.00,meteohub,2013-02-24 08:38:00,
2013-02-24 03:39:00,29.5,27.5,28.86,NNE,12,0.0,4.0,92,0.00,,,0.00,meteohub,2013-02-24 08:39:00,
2013-02-24 03:40:00,29.5,27.5,28.86,NNE,12,0.0,3.0,92,0.00,,,0.00,meteohub,2013-02-24 08:40:00,
2013-02-24 03:42:00,29.5,27.5,28.85,NNE,12,2.0,3.0,92,0.00,,,0.00,meteohub,2013-02-24 08:42:00,
2013-02-24 03:44:00,29.5,27.5,28.85,NNE,12,0.0,3.0,92,0.00,,,0.00,meteohub,2013-02-24 08:44:00,
2013-02-24 03:45:00,29.5,27.5,28.85,NNE,12,0.0,3.0,92,0.00,,,0.00,meteohub,2013-02-24 08:45:00,
2013-02-24 03:48:00,29.5,27.5,28.85,ENE,75,1.0,3.0,92,0.00,,,0.00,meteohub,2013-02-24 08:48:00,
2013-02-24 03:50:00,29.5,27.5,28.85,ENE,74,0.0,3.0,92,0.00,,,0.00,meteohub,2013-02-24 08:50:00,
2013-02-24 03:53:00,29.7,27.7,28.85,ENE,74,0.0,4.0,92,0.00,,,0.00,meteohub,2013-02-24 08:53:00,
2013-02-24 03:55:00,29.7,27.7,28.85,ENE,74,0.0,4.0,92,0.00,,,0.00,meteohub,2013-02-24 08:55:00,
2013-02-24 03:56:00,29.7,27.7,28.85,ENE,74,0.0,4.0,92,0.00,,,0.00,meteohub,2013-02-24 08:56:00,
2013-02-24 03:57:00,29.7,27.7,28.85,ENE,74,0.0,4.0,92,0.00,,,0.00,meteohub,2013-02-24 08:57:00,
2013-02-24 04:00:00,29.7,27.7,28.85,ENE,74,1.0,4.0,92,0.00,,,0.00,meteohub,2013-02-24 09:00:00,
2013-02-24 04:02:00,29.7,27.3,28.85,ENE,74,1.0,4.0,91,0.00,,,0.00,meteohub,2013-02-24 09:02:00,
2013-02-24 04:04:00,29.7,27.3,28.85,NNE,27,0.0,4.0,91,0.00,,,0.00,meteohub,2013-02-24 09:04:00,
2013-02-24 04:05:00,29.7,27.3,28.85,NNE,32,0.0,4.0,91,0.00,,,0.00,meteohub,2013-02-24 09:05:00,
2013-02-24 04:08:00,29.7,27.3,28.85,NNE,32,0.0,2.0,91,0.00,,,0.00,meteohub,2013-02-24 09:08:00,
2013-02-24 04:09:00,29.7,27.3,28.85,NNE,32,0.0,2.0,91,0.00,,,0.00,meteohub,2013-02-24 09:09:00,
2013-02-24 04:10:00,29.8,27.5,28.85,NNE,32,0.0,2.0,91,0.00,,,0.00,meteohub,2013-02-24 09:10:00,
2013-02-24 04:11:00,29.8,27.5,28.85,NNE,32,0.0,2.0,91,0.00,,,0.00,meteohub,2013-02-24 09:11:00,
2013-02-24 04:13:00,29.8,27.3,28.85,NNE,32,1.0,2.0,90,0.00,,,0.00,meteohub,2013-02-24 09:13:00,
2013-02-24 04:15:00,29.8,27.3,28.85,NNE,32,0.0,2.0,90,0.00,,,0.00,meteohub,2013-02-24 09:15:00,
2013-02-24 04:16:00,29.8,27.3,28.85,NNE,32,0.0,2.0,90,0.00,,,0.00,meteohub,2013-02-24 09:16:00,
2013-02-24 04:17:00,29.8,27.3,28.85,NNE,32,0.0,2.0,90,0.00,,,0.00,meteohub,2013-02-24 09:17:00,
2013-02-24 04:19:00,29.8,27.3,28.85,NNE,32,0.0,2.0,90,0.00,,,0.00,meteohub,2013-02-24 09:19:00,
2013-02-24 04:20:00,29.8,27.3,28.85,NNE,32,0.0,1.0,90,0.00,,,0.00,meteohub,2013-02-24 09:20:00,
2013-02-24 04:22:00,29.8,27.3,28.85,NNE,32,0.0,1.0,90,0.00,,,0.00,meteohub,2013-02-24 09:22:00,
2013-02-24 04:23:00,29.8,27.3,28.85,NNE,32,0.0,1.0,90,0.00,,,0.00,meteohub,2013-02-24 09:23:00,
2013-02-24 04:25:00,29.8,27.3,28.85,NNE,32,0.0,1.0,90,0.00,,,0.00,meteohub,2013-02-24 09:25:00,
2013-02-24 04:26:00,29.8,27.3,28.85,NNE,32,0.0,1.0,90,0.00,,,0.00,meteohub,2013-02-24 09:26:00,
2013-02-24 04:28:00,29.8,27.5,28.85,NNE,32,0.0,1.0,91,0.00,,,0.00,meteohub,2013-02-24 09:28:00,
2013-02-24 04:30:00,29.8,27.5,28.85,NNE,32,0.0,1.0,91,0.00,,,0.00,meteohub,2013-02-24 09:30:00,
2013-02-24 04:31:00,29.8,27.5,28.85,NNE,32,1.0,1.0,91,0.00,,,0.00,meteohub,2013-02-24 09:31:00,
2013-02-24 04:32:00,29.7,27.3,28.85,NNE,32,0.0,1.0,91,0.00,,,0.00,meteohub,2013-02-24 09:32:00,
2013-02-24 04:34:00,29.7,27.3,28.85,NE,55,0.0,1.0,91,0.00,,,0.00,meteohub,2013-02-24 09:34:00,
2013-02-24 04:35:00,29.7,27.3,28.85,NE,55,0.0,2.0,91,0.00,,,0.00,meteohub,2013-02-24 09:35:00,
2013-02-24 04:36:00,29.7,27.3,28.85,NE,55,0.0,2.0,91,0.00,,,0.00,meteohub,2013-02-24 09:36:00,
2013-02-24 04:38:00,29.7,27.3,28.85,NE,55,1.0,2.0,91,0.00,,,0.00,meteohub,2013-02-24 09:38:00,
2013-02-24 04:41:00,29.7,27.3,28.85,NE,55,0.0,2.0,91,0.00,,,0.00,meteohub,2013-02-24 09:41:00,
2013-02-24 04:42:00,29.7,27.3,28.85,NE,55,0.0,2.0,91,0.00,,,0.00,meteohub,2013-02-24 09:42:00,
2013-02-24 04:44:00,29.7,27.3,28.85,NE,55,1.0,2.0,91,0.00,,,0.00,meteohub,2013-02-24 09:44:00,
2013-02-24 04:46:00,29.7,27.3,28.85,NNE,24,0.0,3.0,91,0.00,,,0.00,meteohub,2013-02-24 09:46:00,
2013-02-24 04:47:00,29.7,27.3,28.85,NNE,24,0.0,3.0,91,0.00,,,0.00,meteohub,2013-02-24 09:47:00,
2013-02-24 04:48:00,29.7,27.3,28.85,NNE,24,0.0,3.0,91,0.00,,,0.00,meteohub,2013-02-24 09:48:00,
2013-02-24 04:50:00,29.7,27.7,28.85,NE,34,1.0,3.0,92,0.00,,,0.00,meteohub,2013-02-24 09:50:00,
2013-02-24 04:52:00,29.7,27.7,28.85,NE,34,2.0,3.0,92,0.00,,,0.00,meteohub,2013-02-24 09:52:00,
2013-02-24 04:56:00,29.7,27.3,28.85,ENE,73,0.0,3.0,91,0.00,,,0.00,meteohub,2013-02-24 09:56:00,
2013-02-24 04:59:00,29.7,27.7,28.85,South,174,2.0,3.0,92,0.00,,,0.00,meteohub,2013-02-24 09:59:00,
2013-02-24 05:00:00,29.7,27.7,28.85,South,174,0.0,3.0,92,0.00,,,0.00,meteohub,2013-02-24 10:00:00,
2013-02-24 05:01:00,29.7,27.3,28.85,SSW,199,0.0,3.0,91,0.00,,,0.00,meteohub,2013-02-24 10:01:00,
2013-02-24 05:05:00,29.8,27.5,28.85,NE,53,0.0,3.0,91,0.00,,,0.00,meteohub,2013-02-24 10:05:00,
2013-02-24 05:06:00,29.8,27.5,28.85,NE,53,0.0,3.0,91,0.00,,,0.00,meteohub,2013-02-24 10:06:00,
2013-02-24 05:07:00,29.8,27.5,28.85,ENE,60,0.0,3.0,91,0.00,,,0.00,meteohub,2013-02-24 10:07:00,
2013-02-24 05:11:00,29.8,27.5,28.85,South,179,0.0,3.0,91,0.00,,,0.00,meteohub,2013-02-24 10:11:00,
2013-02-24 05:12:00,29.8,27.5,28.85,South,179,0.0,3.0,91,0.00,,,0.00,meteohub,2013-02-24 10:12:00,
2013-02-24 05:13:00,29.8,27.5,28.85,SSE,159,0.0,3.0,91,0.00,,,0.00,meteohub,2013-02-24 10:13:00,
2013-02-24 05:17:00,29.8,27.5,28.85,SW,217,0.0,3.0,91,0.00,,,0.00,meteohub,2013-02-24 10:17:00,
2013-02-24 05:19:00,29.8,27.5,28.85,SW,216,0.0,3.0,91,0.00,,,0.00,meteohub,2013-02-24 10:19:00,
2013-02-24 05:23:00,29.8,27.5,28.85,SE,125,0.0,3.0,91,0.00,,,0.00,meteohub,2013-02-24 10:23:00,
2013-02-24 05:24:00,29.8,27.5,28.85,SE,125,0.0,3.0,91,0.00,,,0.00,meteohub,2013-02-24 10:24:00,
2013-02-24 05:25:00,29.8,27.5,28.85,SE,125,0.0,3.0,91,0.00,,,0.00,meteohub,2013-02-24 10:25:00,
2013-02-24 05:28:00,29.8,27.5,28.85,SE,125,0.0,1.0,91,0.00,,,0.00,meteohub,2013-02-24 10:28:00,
2013-02-24 05:30:00,29.8,27.5,28.85,SE,125,0.0,1.0,91,0.00,,,0.00,meteohub,2013-02-24 10:30:00,
2013-02-24 05:31:00,29.8,27.5,28.85,SE,125,0.0,1.0,91,0.00,,,0.00,meteohub,2013-02-24 10:31:00,
2013-02-24 05:34:00,29.8,27.5,28.85,SE,125,0.0,1.0,91,0.00,,,0.00,meteohub,2013-02-24 10:34:00,
2013-02-24 05:36:00,29.8,27.5,28.85,SE,125,0.0,1.0,91,0.00,,,0.00,meteohub,2013-02-24 10:36:00,
2013-02-24 05:37:00,29.8,27.5,28.85,South,169,1.0,1.0,91,0.00,,,0.00,meteohub,2013-02-24 10:37:00,
2013-02-24 05:39:00,29.8,27.5,28.85,East,86,0.0,1.0,91,0.00,,,0.00,meteohub,2013-02-24 10:39:00,
2013-02-24 05:42:00,30.0,27.7,28.85,East,86,0.0,1.0,91,0.00,,,0.00,meteohub,2013-02-24 10:42:00,
2013-02-24 05:43:00,30.0,27.7,28.85,East,86,0.0,1.0,91,0.00,,,0.00,meteohub,2013-02-24 10:43:00,
2013-02-24 05:44:00,30.0,27.7,28.85,East,86,0.0,1.0,91,0.00,,,0.00,meteohub,2013-02-24 10:44:00,
2013-02-24 05:45:00,30.0,27.7,28.85,East,86,0.0,1.0,91,0.00,,,0.00,meteohub,2013-02-24 10:45:00,
2013-02-24 05:48:00,30.0,27.7,28.85,East,86,0.0,1.0,91,0.00,,,0.00,meteohub,2013-02-24 10:48:00,
2013-02-24 05:49:00,30.0,27.7,28.85,East,86,0.0,1.0,91,0.00,,,0.00,meteohub,2013-02-24 10:49:00,
2013-02-24 05:53:00,30.0,27.7,28.85,East,86,0.0,1.0,91,0.00,,,0.00,meteohub,2013-02-24 10:53:00,
2013-02-24 05:54:00,30.0,27.7,28.85,East,86,0.0,1.0,91,0.00,,,0.00,meteohub,2013-02-24 10:54:00,
2013-02-24 05:55:00,30.0,27.7,28.85,East,86,0.0,1.0,91,0.00,,,0.00,meteohub,2013-02-24 10:55:00,
2013-02-24 05:59:00,30.0,27.7,28.85,East,86,1.0,1.0,91,0.00,,,0.00,meteohub,2013-02-24 10:59:00,
2013-02-24 06:00:00,30.0,27.7,28.85,ENE,78,2.0,2.0,91,0.00,,,0.00,meteohub,2013-02-24 11:00:00,
2013-02-24 06:01:00,30.0,27.7,28.85,East,84,0.0,3.0,91,0.00,,,0.00,meteohub,2013-02-24 11:01:00,
2013-02-24 06:02:00,30.0,27.7,28.85,East,84,0.0,3.0,91,0.00,,,0.00,meteohub,2013-02-24 11:02:00,
2013-02-24 06:05:00,30.0,27.7,28.85,East,84,0.0,3.0,91,0.00,,,0.00,meteohub,2013-02-24 11:05:00,
2013-02-24 06:06:00,30.0,27.7,28.85,ENE,69,1.0,3.0,91,0.00,,,0.00,meteohub,2013-02-24 11:06:00,
2013-02-24 06:07:00,30.0,27.7,28.85,ENE,69,0.0,3.0,91,0.00,,,0.00,meteohub,2013-02-24 11:07:00,
2013-02-24 06:09:00,30.0,27.7,28.85,ENE,72,0.0,3.0,91,0.00,,,0.00,meteohub,2013-02-24 11:09:00,
2013-02-24 06:12:00,30.2,27.9,28.85,ENE,67,0.0,3.0,91,0.00,,,0.00,meteohub,2013-02-24 11:12:00,
2013-02-24 06:13:00,30.2,27.9,28.85,ENE,67,1.0,3.0,91,0.00,,,0.00,meteohub,2013-02-24 11:13:00,
2013-02-24 06:14:00,30.0,27.7,28.85,ENE,67,1.0,3.0,91,0.00,,,0.00,meteohub,2013-02-24 11:14:00,
2013-02-24 06:16:00,30.2,27.9,28.85,ENE,65,1.0,3.0,91,0.00,,,0.00,meteohub,2013-02-24 11:16:00,
2013-02-24 06:17:00,30.2,27.9,28.85,NNE,17,0.0,3.0,91,0.00,,,0.00,meteohub,2013-02-24 11:17:00,
2013-02-24 06:19:00,30.2,27.9,28.85,NW,317,2.0,3.0,91,0.00,,,0.00,meteohub,2013-02-24 11:19:00,
2013-02-24 06:20:00,30.2,27.9,28.85,NW,317,1.0,3.0,91,0.00,,,0.00,meteohub,2013-02-24 11:20:00,
2013-02-24 06:21:00,30.4,28.0,28.85,NW,317,0.0,3.0,91,0.00,,,0.00,meteohub,2013-02-24 11:21:00,
2013-02-24 06:24:00,30.4,27.9,28.85,East,79,1.0,3.0,90,0.00,,,0.00,meteohub,2013-02-24 11:24:00,
2013-02-24 06:25:00,30.6,28.0,28.85,ENE,69,1.0,3.0,90,0.00,,,0.00,meteohub,2013-02-24 11:25:00,
2013-02-24 06:26:00,30.6,28.0,28.85,ENE,61,2.0,3.0,90,0.00,,,0.00,meteohub,2013-02-24 11:26:00,
2013-02-24 06:29:00,30.6,28.0,28.85,NE,44,0.0,3.0,90,0.00,,,0.00,meteohub,2013-02-24 11:29:00,
2013-02-24 06:31:00,30.6,28.0,28.85,NE,45,0.0,4.0,90,0.00,,,0.00,meteohub,2013-02-24 11:31:00,
2013-02-24 06:32:00,30.6,28.0,28.85,NE,47,0.0,4.0,90,0.00,,,0.00,meteohub,2013-02-24 11:32:00,
2013-02-24 06:34:00,30.6,28.0,28.85,ENE,67,4.0,4.0,90,0.00,,,0.00,meteohub,2013-02-24 11:34:00,
2013-02-24 06:37:00,30.6,28.0,28.85,ENE,68,0.0,4.0,90,0.00,,,0.00,meteohub,2013-02-24 11:37:00,
2013-02-24 06:38:00,30.6,28.0,28.85,ENE,68,0.0,4.0,90,0.00,,,0.00,meteohub,2013-02-24 11:38:00,
2013-02-24 06:40:00,30.6,28.0,28.85,ENE,67,2.0,4.0,90,0.00,,,0.00,meteohub,2013-02-24 11:40:00,
2013-02-24 06:42:00,30.7,28.2,28.86,ENE,71,0.0,4.0,90,0.00,,,0.00,meteohub,2013-02-24 11:42:00,
2013-02-24 06:43:00,30.7,28.2,28.86,ENE,71,0.0,4.0,90,0.00,,,0.00,meteohub,2013-02-24 11:43:00,
2013-02-24 06:44:00,30.7,28.2,28.86,ENE,71,0.0,4.0,90,0.00,,,0.00,meteohub,2013-02-24 11:44:00,
2013-02-24 06:45:00,30.7,28.2,28.86,ENE,71,0.0,4.0,90,0.00,,,0.00,meteohub,2013-02-24 11:45:00,
2013-02-24 06:48:00,30.7,28.2,28.85,SSE,150,0.0,5.0,90,0.00,,,0.00,meteohub,2013-02-24 11:48:00,
2013-02-24 06:50:00,30.7,28.2,28.86,SSE,148,0.0,5.0,90,0.00,,,0.00,meteohub,2013-02-24 11:50:00,
2013-02-24 06:51:00,30.7,28.2,28.86,SSE,148,0.0,5.0,90,0.00,,,0.00,meteohub,2013-02-24 11:51:00,
2013-02-24 06:54:00,30.7,28.2,28.86,ESE,123,1.0,5.0,90,0.00,,,0.00,meteohub,2013-02-24 11:54:00,
2013-02-24 06:55:00,30.7,28.2,28.86,ESE,123,1.0,5.0,90,0.00,,,0.00,meteohub,2013-02-24 11:55:00,
2013-02-24 07:00:00,30.7,28.2,28.85,NE,42,2.0,5.0,90,0.00,,,0.00,meteohub,2013-02-24 12:00:00,
2013-02-24 07:01:00,30.7,28.2,28.85,NE,52,2.0,5.0,90,0.00,,,0.00,meteohub,2013-02-24 12:01:00,
2013-02-24 07:02:00,30.7,28.2,28.85,NE,46,1.0,5.0,90,0.00,,,0.00,meteohub,2013-02-24 12:02:00,
2013-02-24 07:05:00,30.7,28.2,28.85,NE,50,2.0,5.0,90,0.00,,,0.00,meteohub,2013-02-24 12:05:00,
2013-02-24 07:06:00,30.7,28.2,28.85,NE,51,1.0,5.0,90,0.00,,,0.00,meteohub,2013-02-24 12:06:00,
2013-02-24 07:07:00,30.7,28.2,28.85,NE,51,0.0,5.0,90,0.00,,,0.00,meteohub,2013-02-24 12:07:00,
2013-02-24 07:09:00,30.7,28.2,28.85,NNE,25,3.0,5.0,90,0.00,,,0.00,meteohub,2013-02-24 12:09:00,
2013-02-24 07:11:00,30.7,28.2,28.85,NNE,26,2.0,5.0,90,0.00,,,0.00,meteohub,2013-02-24 12:11:00,
2013-02-24 07:12:00,30.7,28.2,28.85,NNE,26,0.0,5.0,90,0.00,,,0.00,meteohub,2013-02-24 12:12:00,
2013-02-24 07:16:00,30.7,28.2,28.85,NNE,26,0.0,5.0,90,0.00,,,0.00,meteohub,2013-02-24 12:16:00,
2013-02-24 07:17:00,30.7,28.2,28.85,NNE,26,0.0,5.0,90,0.00,,,0.00,meteohub,2013-02-24 12:17:00,
2013-02-24 07:22:00,30.6,28.2,28.85,NNE,26,0.0,4.0,91,0.00,,,0.00,meteohub,2013-02-24 12:22:00,
2013-02-24 07:23:00,30.6,28.2,28.85,NNE,26,0.0,4.0,91,0.00,,,0.00,meteohub,2013-02-24 12:23:00,
2013-02-24 07:24:00,30.6,28.2,28.85,NNE,30,2.0,4.0,91,0.00,,,0.00,meteohub,2013-02-24 12:24:00,
2013-02-24 07:28:00,30.6,28.2,28.85,NNE,31,2.0,3.0,91,0.00,,,0.00,meteohub,2013-02-24 12:28:00,
2013-02-24 07:29:00,30.6,28.2,28.84,NNE,31,2.0,3.0,91,0.00,,,0.00,meteohub,2013-02-24 12:29:00,
2013-02-24 07:33:00,30.7,28.4,28.85,NE,37,0.0,3.0,91,0.00,,,0.00,meteohub,2013-02-24 12:33:00,
2013-02-24 07:34:00,30.7,28.4,28.84,NE,37,0.0,3.0,91,0.00,,,0.00,meteohub,2013-02-24 12:34:00,
2013-02-24 07:35:00,30.7,28.4,28.84,NE,37,0.0,3.0,91,0.00,,,0.00,meteohub,2013-02-24 12:35:00,
2013-02-24 07:36:00,30.7,28.4,28.84,NE,37,0.0,3.0,91,0.00,,,0.00,meteohub,2013-02-24 12:36:00,
2013-02-24 07:39:00,30.7,28.4,28.84,NE,37,0.0,3.0,91,0.00,,,0.00,meteohub,2013-02-24 12:39:00,
2013-02-24 07:40:00,30.7,28.4,28.84,NE,37,0.0,3.0,91,0.00,,,0.00,meteohub,2013-02-24 12:40:00,
2013-02-24 07:41:00,30.7,28.4,28.84,NE,37,0.0,3.0,91,0.00,,,0.00,meteohub,2013-02-24 12:41:00,
2013-02-24 07:44:00,30.7,28.2,28.84,NE,45,0.0,3.0,90,0.00,,,0.00,meteohub,2013-02-24 12:44:00,
2013-02-24 07:45:00,30.7,28.2,28.84,NE,46,2.0,3.0,90,0.00,,,0.00,meteohub,2013-02-24 12:45:00,
2013-02-24 07:46:00,30.7,28.2,28.84,NE,46,0.0,3.0,90,0.00,,,0.00,meteohub,2013-02-24 12:46:00,
2013-02-24 07:47:00,30.7,28.2,28.84,NE,46,0.0,3.0,90,0.00,,,0.00,meteohub,2013-02-24 12:47:00,
2013-02-24 07:50:00,30.9,28.4,28.84,NE,46,0.0,3.0,90,0.00,,,0.00,meteohub,2013-02-24 12:50:00,
2013-02-24 07:52:00,30.9,28.4,28.84,NE,47,0.0,3.0,90,0.00,,,0.00,meteohub,2013-02-24 12:52:00,
2013-02-24 07:54:00,30.9,28.4,28.84,NE,46,0.0,3.0,90,0.00,,,0.00,meteohub,2013-02-24 12:54:00,
2013-02-24 07:56:00,30.9,28.4,28.85,NE,47,2.0,3.0,90,0.00,,,0.00,meteohub,2013-02-24 12:56:00,
2013-02-24 07:57:00,30.9,28.4,28.84,ENE,76,3.0,3.0,90,0.00,,,0.00,meteohub,2013-02-24 12:57:00,
2013-02-24 07:58:00,30.9,28.4,28.84,ENE,74,3.0,3.0,90,0.00,,,0.00,meteohub,2013-02-24 12:58:00,
2013-02-24 08:01:00,30.9,28.4,28.84,ENE,78,0.0,5.0,90,0.00,,,0.00,meteohub,2013-02-24 13:01:00,
2013-02-24 08:02:00,30.9,28.4,28.84,ENE,78,0.0,5.0,90,0.00,,,0.00,meteohub,2013-02-24 13:02:00,
2013-02-24 08:03:00,30.9,28.4,28.84,ENE,78,0.0,5.0,90,0.00,,,0.00,meteohub,2013-02-24 13:03:00,
2013-02-24 08:04:00,30.9,28.4,28.84,ENE,78,1.0,5.0,90,0.00,,,0.00,meteohub,2013-02-24 13:04:00,
2013-02-24 08:06:00,31.1,28.6,28.84,ENE,78,0.0,5.0,90,0.00,,,0.00,meteohub,2013-02-24 13:06:00,
2013-02-24 08:08:00,31.1,28.6,28.84,ENE,78,0.0,5.0,90,0.00,,,0.00,meteohub,2013-02-24 13:08:00,
2013-02-24 08:09:00,31.1,28.6,28.84,ENE,78,2.0,5.0,90,0.00,,,0.00,meteohub,2013-02-24 13:09:00,
2013-02-24 08:10:00,31.1,28.6,28.84,ESE,106,0.0,5.0,90,0.00,,,0.00,meteohub,2013-02-24 13:10:00,
2013-02-24 08:12:00,31.1,28.6,28.84,East,88,2.0,5.0,90,0.00,,,0.00,meteohub,2013-02-24 13:12:00,
2013-02-24 08:14:00,31.1,28.6,28.84,East,85,2.0,5.0,90,0.00,,,0.00,meteohub,2013-02-24 13:14:00,
2013-02-24 08:16:00,31.1,28.2,28.84,East,85,0.0,3.0,89,0.00,,,0.00,meteohub,2013-02-24 13:16:00,
2013-02-24 08:17:00,31.1,28.2,28.84,East,85,0.0,3.0,89,0.00,,,0.00,meteohub,2013-02-24 13:17:00,
2013-02-24 08:19:00,31.1,28.6,28.84,East,85,0.0,3.0,90,0.00,,,0.00,meteohub,2013-02-24 13:19:00,
2013-02-24 08:22:00,31.1,28.2,28.84,ENE,77,0.0,3.0,89,0.00,,,0.00,meteohub,2013-02-24 13:22:00,
2013-02-24 08:23:00,31.1,28.6,28.84,ENE,77,0.0,3.0,90,0.00,,,0.00,meteohub,2013-02-24 13:23:00,
2013-02-24 08:25:00,31.1,28.2,28.84,ENE,77,0.0,3.0,89,0.00,,,0.00,meteohub,2013-02-24 13:25:00,
2013-02-24 08:26:00,31.3,28.4,28.84,ENE,72,1.0,3.0,89,0.00,,,0.00,meteohub,2013-02-24 13:26:00,
2013-02-24 08:30:00,31.3,28.4,28.84,ENE,69,1.0,3.0,89,0.00,,,0.00,meteohub,2013-02-24 13:30:00,
2013-02-24 08:31:00,31.3,28.8,28.84,ENE,69,0.0,2.0,90,0.00,,,0.00,meteohub,2013-02-24 13:31:00,
2013-02-24 08:32:00,31.3,28.4,28.84,ENE,69,0.0,2.0,89,0.00,,,0.00,meteohub,2013-02-24 13:32:00,
2013-02-24 08:35:00,31.3,28.4,28.84,NE,55,2.0,2.0,89,0.00,,,0.00,meteohub,2013-02-24 13:35:00,
2013-02-24 08:36:00,31.3,28.4,28.84,NE,55,1.0,3.0,89,0.00,,,0.00,meteohub,2013-02-24 13:36:00,
2013-02-24 08:37:00,31.3,28.4,28.84,NE,34,0.0,3.0,89,0.00,,,0.00,meteohub,2013-02-24 13:37:00,
2013-02-24 08:40:00,31.3,28.8,28.84,NE,38,0.0,3.0,90,0.00,,,0.00,meteohub,2013-02-24 13:40:00,
2013-02-24 08:41:00,31.3,28.8,28.84,NE,38,0.0,3.0,90,0.00,,,0.00,meteohub,2013-02-24 13:41:00,
2013-02-24 08:42:00,31.3,28.8,28.84,NE,38,0.0,3.0,90,0.00,,,0.00,meteohub,2013-02-24 13:42:00,
2013-02-24 08:44:00,31.3,28.8,28.83,NE,38,0.0,3.0,90,0.00,,,0.00,meteohub,2013-02-24 13:44:00,
2013-02-24 08:46:00,31.5,28.9,28.83,NE,38,0.0,3.0,90,0.00,,,0.00,meteohub,2013-02-24 13:46:00,
2013-02-24 08:47:00,31.5,28.9,28.83,NE,38,0.0,3.0,90,0.00,,,0.00,meteohub,2013-02-24 13:47:00,
2013-02-24 08:50:00,31.5,28.9,28.83,NE,38,0.0,3.0,90,0.00,,,0.00,meteohub,2013-02-24 13:50:00,
2013-02-24 08:52:00,31.5,28.9,28.83,NE,38,0.0,2.0,90,0.00,,,0.00,meteohub,2013-02-24 13:52:00,
2013-02-24 08:53:00,31.5,28.9,28.83,NE,38,0.0,2.0,90,0.00,,,0.00,meteohub,2013-02-24 13:53:00,
2013-02-24 08:54:00,31.5,28.9,28.84,NE,38,0.0,2.0,90,0.00,,,0.00,meteohub,2013-02-24 13:54:00,
2013-02-24 08:55:00,31.5,28.9,28.83,NE,38,0.0,2.0,90,0.00,,,0.00,meteohub,2013-02-24 13:55:00,
2013-02-24 08:57:00,31.6,29.1,28.83,NE,38,0.0,1.0,90,0.00,,,0.00,meteohub,2013-02-24 13:57:00,
2013-02-24 08:59:00,31.6,29.1,28.83,NE,38,0.0,1.0,90,0.00,,,0.00,meteohub,2013-02-24 13:59:00,
2013-02-24 09:00:00,31.6,28.8,28.83,NE,38,0.0,1.0,89,0.00,,,0.00,meteohub,2013-02-24 14:00:00,
2013-02-24 09:02:00,31.6,28.8,28.83,NE,38,0.0,1.0,89,0.00,,,0.00,meteohub,2013-02-24 14:02:00,
2013-02-24 09:04:00,31.6,28.8,28.84,NE,38,0.0,1.0,89,0.00,,,0.00,meteohub,2013-02-24 14:04:00,
2013-02-24 09:05:00,31.6,28.8,28.83,NE,38,0.0,1.0,89,0.00,,,0.00,meteohub,2013-02-24 14:05:00,
2013-02-24 09:07:00,31.6,28.8,28.83,NE,38,1.0,1.0,89,0.00,,,0.00,meteohub,2013-02-24 14:07:00,
2013-02-24 09:08:00,31.6,28.8,28.83,NE,38,0.0,1.0,89,0.00,,,0.00,meteohub,2013-02-24 14:08:00,
2013-02-24 09:10:00,31.6,28.8,28.83,NE,38,0.0,2.0,89,0.00,,,0.00,meteohub,2013-02-24 14:10:00,
2013-02-24 09:13:00,31.6,28.8,28.83,NE,38,0.0,2.0,89,0.00,,,0.00,meteohub,2013-02-24 14:13:00,
2013-02-24 09:14:00,31.6,28.8,28.83,NE,38,0.0,2.0,89,0.00,,,0.00,meteohub,2013-02-24 14:14:00,
2013-02-24 09:16:00,31.6,28.8,28.83,NE,38,0.0,2.0,89,0.00,,,0.00,meteohub,2013-02-24 14:16:00,
2013-02-24 09:17:00,31.6,28.8,28.83,NE,38,0.0,2.0,89,0.00,,,0.00,meteohub,2013-02-24 14:17:00,
2013-02-24 09:19:00,31.8,28.9,28.83,NE,38,0.0,2.0,89,0.00,,,0.00,meteohub,2013-02-24 14:19:00,
2013-02-24 09:20:00,31.8,28.9,28.83,NE,38,0.0,2.0,89,0.00,,,0.00,meteohub,2013-02-24 14:20:00,
2013-02-24 09:21:00,31.8,28.9,28.83,NE,38,0.0,2.0,89,0.00,,,0.00,meteohub,2013-02-24 14:21:00,
2013-02-24 09:23:00,31.8,28.9,28.83,NE,38,1.0,2.0,89,0.00,,,0.00,meteohub,2013-02-24 14:23:00,
2013-02-24 09:24:00,31.8,28.9,28.83,NE,38,1.0,2.0,89,0.00,,,0.00,meteohub,2013-02-24 14:24:00,
2013-02-24 09:25:00,31.8,28.9,28.83,NE,38,0.0,2.0,89,0.00,,,0.00,meteohub,2013-02-24 14:25:00,
2013-02-24 09:26:00,31.8,28.9,28.83,NE,38,0.0,2.0,89,0.00,,,0.00,meteohub,2013-02-24 14:26:00,
2013-02-24 09:28:00,31.8,28.9,28.82,NE,40,1.0,2.0,89,0.00,,,0.00,meteohub,2013-02-24 14:28:00,
2013-02-24 09:30:00,31.8,28.9,28.82,NE,40,1.0,2.0,89,0.00,,,0.00,meteohub,2013-02-24 14:30:00,
2013-02-24 09:31:00,32.0,29.1,28.83,NE,40,0.0,3.0,89,0.00,,,0.00,meteohub,2013-02-24 14:31:00,
2013-02-24 09:32:00,32.0,29.1,28.82,NE,40,0.0,3.0,89,0.00,,,0.00,meteohub,2013-02-24 14:32:00,
2013-02-24 09:35:00,32.0,29.1,28.83,NE,53,0.0,3.0,89,0.00,,,0.00,meteohub,2013-02-24 14:35:00,
2013-02-24 09:36:00,32.0,29.1,28.82,NE,53,1.0,3.0,89,0.00,,,0.00,meteohub,2013-02-24 14:36:00,
2013-02-24 09:37:00,32.0,29.1,28.82,NE,53,0.0,3.0,89,0.00,,,0.00,meteohub,2013-02-24 14:37:00,
2013-02-24 09:39:00,32.0,29.1,28.82,NE,53,0.0,3.0,89,0.00,,,0.00,meteohub,2013-02-24 14:39:00,
2013-02-24 09:42:00,32.2,29.3,28.83,NE,50,0.0,3.0,89,0.00,,,0.00,meteohub,2013-02-24 14:42:00,
2013-02-24 09:46:00,32.2,29.3,28.82,NE,50,0.0,2.0,89,0.00,,,0.00,meteohub,2013-02-24 14:46:00,
2013-02-24 09:47:00,32.2,29.3,28.82,NE,50,0.0,2.0,89,0.00,,,0.00,meteohub,2013-02-24 14:47:00,
2013-02-24 09:48:00,32.2,29.3,28.82,NE,50,0.0,2.0,89,0.00,,,0.00,meteohub,2013-02-24 14:48:00,
2013-02-24 09:51:00,32.2,29.3,28.82,ENE,68,1.0,1.0,89,0.00,,,0.00,meteohub,2013-02-24 14:51:00,
2013-02-24 09:54:00,32.2,29.3,28.82,ENE,68,0.0,1.0,89,0.00,,,0.00,meteohub,2013-02-24 14:54:00,
2013-02-24 09:56:00,32.4,29.5,28.82,ENE,68,0.0,1.0,89,0.00,,,0.00,meteohub,2013-02-24 14:56:00,
2013-02-24 09:57:00,32.4,29.5,28.82,ENE,68,0.0,1.0,89,0.00,,,0.00,meteohub,2013-02-24 14:57:00,
2013-02-24 10:00:00,32.4,29.5,28.82,ENE,68,0.0,1.0,89,0.00,,,0.00,meteohub,2013-02-24 15:00:00,
2013-02-24 10:01:00,32.4,29.5,28.82,ENE,68,0.0,1.0,89,0.00,,,0.00,meteohub,2013-02-24 15:01:00,
2013-02-24 10:02:00,32.4,29.5,28.82,ENE,68,0.0,1.0,89,0.00,,,0.00,meteohub,2013-02-24 15:02:00,
2013-02-24 10:03:00,32.4,29.5,28.82,ENE,69,1.0,1.0,89,0.00,,,0.00,meteohub,2013-02-24 15:03:00,
2013-02-24 10:06:00,32.4,29.5,28.82,ENE,68,0.0,2.0,89,0.00,,,0.00,meteohub,2013-02-24 15:06:00,
2013-02-24 10:07:00,32.4,29.5,28.82,ENE,68,0.0,2.0,89,0.00,,,0.00,meteohub,2013-02-24 15:07:00,
2013-02-24 10:08:00,32.4,29.1,28.82,ENE,69,0.0,2.0,88,0.00,,,0.00,meteohub,2013-02-24 15:08:00,
2013-02-24 10:09:00,32.4,29.5,28.82,ENE,69,1.0,2.0,89,0.00,,,0.00,meteohub,2013-02-24 15:09:00,
2013-02-24 10:13:00,32.4,29.1,28.82,ENE,69,0.0,2.0,88,0.00,,,0.00,meteohub,2013-02-24 15:13:00,
2013-02-24 10:14:00,32.4,29.1,28.82,ENE,69,0.0,2.0,88,0.00,,,0.00,meteohub,2013-02-24 15:14:00,
2013-02-24 10:17:00,32.4,29.1,28.82,ENE,69,0.0,2.0,88,0.00,,,0.00,meteohub,2013-02-24 15:17:00,
2013-02-24 10:18:00,32.4,29.1,28.82,ENE,69,0.0,2.0,88,0.00,,,0.00,meteohub,2013-02-24 15:18:00,
2013-02-24 10:20:00,32.4,29.1,28.82,ENE,69,1.0,2.0,88,0.00,,,0.00,meteohub,2013-02-24 15:20:00,
2013-02-24 10:23:00,32.5,29.7,28.82,ENE,69,0.0,2.0,89,0.00,,,0.00,meteohub,2013-02-24 15:23:00,
2013-02-24 10:25:00,32.5,29.7,28.82,ENE,69,0.0,2.0,89,0.00,,,0.00,meteohub,2013-02-24 15:25:00,
2013-02-24 10:27:00,32.7,29.5,28.81,ENE,69,0.0,2.0,88,0.00,,,0.00,meteohub,2013-02-24 15:27:00,
2013-02-24 10:29:00,32.7,29.5,28.81,ENE,69,0.0,2.0,88,0.00,,,0.00,meteohub,2013-02-24 15:29:00,
2013-02-24 10:30:00,32.9,29.7,28.81,ENE,69,0.0,1.0,88,0.00,,,0.00,meteohub,2013-02-24 15:30:00,
2013-02-24 10:31:00,32.9,29.7,28.81,ENE,69,0.0,1.0,88,0.00,,,0.00,meteohub,2013-02-24 15:31:00,
2013-02-24 10:32:00,33.1,29.8,28.81,ENE,69,0.0,1.0,88,0.00,,,0.00,meteohub,2013-02-24 15:32:00,
2013-02-24 10:36:00,33.3,29.8,28.81,ENE,69,0.0,1.0,87,0.00,,,0.00,meteohub,2013-02-24 15:36:00,
2013-02-24 10:37:00,33.3,29.8,28.81,ENE,69,0.0,1.0,87,0.00,,,0.00,meteohub,2013-02-24 15:37:00,
2013-02-24 10:38:00,33.3,29.8,28.81,ENE,69,0.0,1.0,87,0.00,,,0.00,meteohub,2013-02-24 15:38:00,
2013-02-24 10:42:00,33.4,30.0,28.81,ENE,69,0.0,1.0,87,0.00,,,0.00,meteohub,2013-02-24 15:42:00,
2013-02-24 10:43:00,33.4,30.0,28.81,ENE,69,0.0,1.0,87,0.00,,,0.00,meteohub,2013-02-24 15:43:00,
2013-02-24 10:44:00,33.6,30.2,28.81,ENE,69,0.0,1.0,87,0.00,,,0.00,meteohub,2013-02-24 15:44:00,
2013-02-24 10:47:00,33.6,29.8,28.80,ENE,69,0.0,1.0,86,0.00,,,0.00,meteohub,2013-02-24 15:47:00,
2013-02-24 10:49:00,33.8,30.0,28.80,ENE,69,1.0,1.0,86,0.00,,,0.00,meteohub,2013-02-24 15:49:00,
2013-02-24 10:51:00,33.8,29.8,28.81,ENE,66,0.0,1.0,85,0.01,,,0.01,meteohub,2013-02-24 15:51:00,
2013-02-24 10:52:00,34.0,30.0,28.80,ENE,77,0.0,1.0,85,0.01,,,0.01,meteohub,2013-02-24 15:52:00,
2013-02-24 10:55:00,34.0,30.0,28.80,East,81,0.0,1.0,85,0.01,,,0.01,meteohub,2013-02-24 15:55:00,
2013-02-24 10:56:00,33.8,29.8,28.81,East,80,0.0,3.0,85,0.01,,,0.01,meteohub,2013-02-24 15:56:00,
2013-02-24 10:57:00,33.8,29.8,28.80,East,93,0.0,3.0,85,0.01,,,0.01,meteohub,2013-02-24 15:57:00,
2013-02-24 10:58:00,34.0,30.0,28.81,East,93,1.0,3.0,85,0.01,,,0.01,meteohub,2013-02-24 15:58:00,
2013-02-24 11:02:00,34.0,30.0,28.80,East,89,0.0,3.0,85,0.01,,,0.01,meteohub,2013-02-24 16:02:00,
2013-02-24 11:04:00,34.0,30.0,28.80,East,90,0.0,3.0,85,0.01,,,0.01,meteohub,2013-02-24 16:04:00,
2013-02-24 11:08:00,34.2,30.2,28.80,SE,144,1.0,3.0,85,0.01,,,0.01,meteohub,2013-02-24 16:08:00,
2013-02-24 11:09:00,34.2,30.2,28.80,South,182,0.0,3.0,85,0.01,,,0.01,meteohub,2013-02-24 16:09:00,
2013-02-24 11:13:00,34.0,29.7,28.80,NE,35,0.0,3.0,84,0.01,,,0.01,meteohub,2013-02-24 16:13:00,
2013-02-24 11:15:00,34.0,29.7,28.80,NNE,19,0.0,3.0,84,0.01,,,0.01,meteohub,2013-02-24 16:15:00,
2013-02-24 11:16:00,34.0,30.0,28.80,NNE,19,0.0,3.0,85,0.01,,,0.01,meteohub,2013-02-24 16:16:00,
2013-02-24 11:20:00,34.0,30.0,28.80,NNE,19,0.0,3.0,85,0.01,,,0.01,meteohub,2013-02-24 16:20:00,
2013-02-24 11:21:00,34.0,30.0,28.80,NNE,19,0.0,3.0,85,0.01,,,0.01,meteohub,2013-02-24 16:21:00,
2013-02-24 11:22:00,34.2,30.2,28.80,NNE,19,0.0,3.0,85,0.01,,,0.01,meteohub,2013-02-24 16:22:00,
2013-02-24 11:25:00,34.2,30.2,28.80,NNE,24,0.0,3.0,85,0.01,,,0.01,meteohub,2013-02-24 16:25:00,
2013-02-24 11:26:00,34.2,30.2,28.80,NE,37,0.0,3.0,85,0.01,,,0.01,meteohub,2013-02-24 16:26:00,
2013-02-24 11:28:00,34.2,29.8,28.80,NE,37,0.0,3.0,84,0.01,,,0.01,meteohub,2013-02-24 16:28:00,
2013-02-24 11:30:00,34.3,30.4,28.80,NE,37,0.0,1.0,85,0.02,,,0.02,meteohub,2013-02-24 16:30:00,
2013-02-24 11:31:00,34.3,30.4,28.80,NE,37,0.0,1.0,85,0.02,,,0.02,meteohub,2013-02-24 16:31:00,
2013-02-24 11:32:00,34.3,30.4,28.80,NE,44,0.0,1.0,85,0.02,,,0.02,meteohub,2013-02-24 16:32:00,
2013-02-24 11:34:00,34.3,30.0,28.80,South,182,0.0,1.0,84,0.02,,,0.02,meteohub,2013-02-24 16:34:00,
2013-02-24 11:37:00,34.3,30.4,28.80,ESE,114,0.0,5.0,85,0.02,,,0.02,meteohub,2013-02-24 16:37:00,
2013-02-24 11:38:00,34.3,30.0,28.80,SSE,161,0.0,5.0,84,0.02,,,0.02,meteohub,2013-02-24 16:38:00,
2013-02-24 11:41:00,34.3,30.4,28.80,SSE,148,0.0,5.0,85,0.02,,,0.02,meteohub,2013-02-24 16:41:00,
2013-02-24 11:42:00,34.2,30.2,28.80,SE,144,2.0,5.0,85,0.02,,,0.02,meteohub,2013-02-24 16:42:00,
2013-02-24 11:44:00,34.2,29.8,28.80,SE,143,0.0,5.0,84,0.02,,,0.02,meteohub,2013-02-24 16:44:00,
2013-02-24 11:47:00,34.2,30.2,28.80,SE,144,0.0,5.0,85,0.02,,,0.02,meteohub,2013-02-24 16:47:00,
2013-02-24 11:48:00,34.2,30.2,28.80,SE,145,2.0,5.0,85,0.02,,,0.02,meteohub,2013-02-24 16:48:00,
2013-02-24 11:49:00,34.2,29.8,28.80,SSE,156,0.0,5.0,84,0.02,,,0.02,meteohub,2013-02-24 16:49:00,
2013-02-24 11:53:00,34.2,30.2,28.80,SSE,155,0.0,4.0,85,0.01,,,0.02,meteohub,2013-02-24 16:53:00,
2013-02-24 11:55:00,34.0,30.0,28.80,SSE,155,1.0,4.0,85,0.01,,,0.02,meteohub,2013-02-24 16:55:00,
2013-02-24 11:57:00,34.0,29.7,28.80,SSE,153,0.0,4.0,84,0.01,,,0.02,meteohub,2013-02-24 16:57:00,
2013-02-24 11:59:00,34.0,30.0,28.80,West,260,0.0,4.0,85,0.01,,,0.02,meteohub,2013-02-24 16:59:00,
2013-02-24 12:00:00,34.0,30.0,28.80,SW,223,2.0,4.0,85,0.01,,,0.02,meteohub,2013-02-24 17:00:00,
2013-02-24 12:01:00,34.0,30.0,28.80,SW,223,0.0,4.0,85,0.01,,,0.02,meteohub,2013-02-24 17:01:00,
2013-02-24 12:04:00,34.0,30.0,28.80,SW,219,0.0,4.0,85,0.01,,,0.02,meteohub,2013-02-24 17:04:00,
2013-02-24 12:05:00,34.0,30.0,28.80,East,89,1.0,4.0,85,0.01,,,0.02,meteohub,2013-02-24 17:05:00,
2013-02-24 12:06:00,34.0,30.0,28.80,East,90,0.0,4.0,85,0.01,,,0.02,meteohub,2013-02-24 17:06:00,
2013-02-24 12:07:00,33.8,30.0,28.80,East,96,0.0,4.0,86,0.01,,,0.02,meteohub,2013-02-24 17:07:00,
2013-02-24 12:09:00,33.8,30.0,28.80,ENE,71,0.0,4.0,86,0.01,,,0.02,meteohub,2013-02-24 17:09:00,
2013-02-24 12:11:00,33.6,29.8,28.80,SSE,168,0.0,4.0,86,0.01,,,0.02,meteohub,2013-02-24 17:11:00,
2013-02-24 12:12:00,33.8,30.0,28.80,SSE,168,0.0,4.0,86,0.01,,,0.02,meteohub,2013-02-24 17:12:00,
2013-02-24 12:13:00,33.6,29.8,28.80,South,188,0.0,4.0,86,0.01,,,0.02,meteohub,2013-02-24 17:13:00,
2013-02-24 12:14:00,33.6,29.8,28.80,SE,138,1.0,4.0,86,0.01,,,0.02,meteohub,2013-02-24 17:14:00,
2013-02-24 12:17:00,33.3,29.8,28.80,South,184,0.0,5.0,87,0.01,,,0.02,meteohub,2013-02-24 17:17:00,
2013-02-24 12:18:00,33.3,29.8,28.80,SE,126,0.0,5.0,87,0.01,,,0.02,meteohub,2013-02-24 17:18:00,
2013-02-24 12:19:00,33.3,29.8,28.80,SE,130,0.0,5.0,87,0.01,,,0.02,meteohub,2013-02-24 17:19:00,
2013-02-24 12:22:00,33.3,29.8,28.80,ESE,104,0.0,5.0,87,0.01,,,0.02,meteohub,2013-02-24 17:22:00,
2013-02-24 12:24:00,33.3,30.0,28.80,SE,146,0.0,5.0,88,0.01,,,0.02,meteohub,2013-02-24 17:24:00,
2013-02-24 12:25:00,33.3,30.0,28.80,SE,146,0.0,5.0,88,0.01,,,0.03,meteohub,2013-02-24 17:25:00,
2013-02-24 12:28:00,33.3,30.0,28.80,SE,136,0.0,5.0,88,0.02,,,0.03,meteohub,2013-02-24 17:28:00,
2013-02-24 12:29:00,33.3,30.0,28.80,SE,138,1.0,5.0,88,0.02,,,0.03,meteohub,2013-02-24 17:29:00,
2013-02-24 12:30:00,33.3,30.0,28.80,SE,138,0.0,5.0,88,0.01,,,0.03,meteohub,2013-02-24 17:30:00,
2013-02-24 12:31:00,33.3,30.0,28.80,SE,138,0.0,5.0,88,0.01,,,0.03,meteohub,2013-02-24 17:31:00,
2013-02-24 12:34:00,33.3,30.0,28.80,SE,138,0.0,5.0,88,0.01,,,0.03,meteohub,2013-02-24 17:34:00,
2013-02-24 12:36:00,33.3,30.0,28.79,SE,140,0.0,2.0,88,0.01,,,0.03,meteohub,2013-02-24 17:36:00,
2013-02-24 12:37:00,33.1,29.8,28.79,ESE,106,0.0,2.0,88,0.01,,,0.03,meteohub,2013-02-24 17:37:00,
2013-02-24 12:39:00,33.1,29.8,28.79,ESE,113,0.0,2.0,88,0.01,,,0.03,meteohub,2013-02-24 17:39:00,
2013-02-24 12:42:00,32.9,29.7,28.79,ENE,77,0.0,2.0,88,0.01,,,0.03,meteohub,2013-02-24 17:42:00,
2013-02-24 12:43:00,32.9,29.7,28.79,ENE,77,0.0,2.0,88,0.01,,,0.03,meteohub,2013-02-24 17:43:00,
2013-02-24 12:44:00,32.9,29.7,28.79,East,82,1.0,2.0,88,0.01,,,0.03,meteohub,2013-02-24 17:44:00,
2013-02-24 12:47:00,32.9,30.0,28.79,NE,51,0.0,2.0,89,0.01,,,0.03,meteohub,2013-02-24 17:47:00,
2013-02-24 12:49:00,32.9,30.0,28.79,WSW,257,0.0,2.0,89,0.01,,,0.03,meteohub,2013-02-24 17:49:00,
2013-02-24 12:50:00,32.9,30.0,28.79,WSW,257,0.0,2.0,89,0.01,,,0.03,meteohub,2013-02-24 17:50:00,
2013-02-24 12:52:00,32.9,30.0,28.80,WSW,257,0.0,1.0,89,0.02,,,0.04,meteohub,2013-02-24 17:52:00,
2013-02-24 12:55:00,32.9,30.0,28.79,WSW,238,1.0,3.0,89,0.02,,,0.04,meteohub,2013-02-24 17:55:00,
2013-02-24 12:58:00,32.7,29.8,28.80,WSW,238,1.0,3.0,89,0.02,,,0.04,meteohub,2013-02-24 17:58:00,
2013-02-24 12:59:00,32.7,29.8,28.80,WSW,238,0.0,3.0,89,0.02,,,0.04,meteohub,2013-02-24 17:59:00,
2013-02-24 13:00:00,32.7,29.8,28.79,WSW,238,0.0,3.0,89,0.02,,,0.04,meteohub,2013-02-24 18:00:00,
2013-02-24 13:02:00,32.7,29.8,28.80,WSW,238,0.0,3.0,89,0.02,,,0.04,meteohub,2013-02-24 18:02:00,
2013-02-24 13:03:00,32.7,29.8,28.79,WSW,238,0.0,3.0,89,0.02,,,0.04,meteohub,2013-02-24 18:03:00,
2013-02-24 13:04:00,32.7,29.8,28.79,WSW,238,0.0,3.0,89,0.02,,,0.04,meteohub,2013-02-24 18:04:00,
2013-02-24 13:06:00,32.7,29.8,28.79,WSW,238,0.0,3.0,89,0.02,,,0.04,meteohub,2013-02-24 18:06:00,
2013-02-24 13:08:00,32.7,29.8,28.79,WSW,238,0.0,3.0,89,0.02,,,0.04,meteohub,2013-02-24 18:08:00,
2013-02-24 13:10:00,32.7,29.8,28.79,WSW,238,0.0,2.0,89,0.03,,,0.05,meteohub,2013-02-24 18:10:00,
2013-02-24 13:11:00,32.7,29.8,28.79,WSW,238,0.0,2.0,89,0.03,,,0.05,meteohub,2013-02-24 18:11:00,
2013-02-24 13:14:00,32.7,29.8,28.79,WSW,238,1.0,2.0,89,0.03,,,0.05,meteohub,2013-02-24 18:14:00,
2013-02-24 13:15:00,32.5,29.7,28.79,WSW,238,0.0,2.0,89,0.03,,,0.05,meteohub,2013-02-24 18:15:00,
2013-02-24 13:17:00,32.5,29.7,28.79,WSW,238,0.0,2.0,89,0.03,,,0.05,meteohub,2013-02-24 18:17:00,
2013-02-24 13:22:00,32.5,29.7,28.79,WSW,238,0.0,1.0,89,0.02,,,0.05,meteohub,2013-02-24 18:22:00,
2013-02-24 13:23:00,32.5,29.7,28.79,WSW,238,0.0,1.0,89,0.02,,,0.05,meteohub,2013-02-24 18:23:00,
2013-02-24 13:28:00,32.5,30.0,28.79,WSW,238,0.0,1.0,90,0.02,,,0.05,meteohub,2013-02-24 18:28:00,
2013-02-24 13:29:00,32.5,30.0,28.79,WSW,238,2.0,2.0,90,0.02,,,0.05,meteohub,2013-02-24 18:29:00,
2013-02-24 13:34:00,32.5,30.0,28.79,WSW,238,0.0,2.0,90,0.02,,,0.05,meteohub,2013-02-24 18:34:00,
2013-02-24 13:37:00,32.7,30.2,28.79,WSW,238,0.0,2.0,90,0.03,,,0.06,meteohub,2013-02-24 18:37:00,
2013-02-24 13:39:00,32.7,30.2,28.79,WSW,238,0.0,2.0,90,0.03,,,0.06,meteohub,2013-02-24 18:39:00,
2013-02-24 13:40:00,32.7,30.2,28.79,WSW,238,0.0,2.0,90,0.03,,,0.06,meteohub,2013-02-24 18:40:00,
2013-02-24 13:41:00,32.7,29.8,28.79,WSW,238,0.0,2.0,89,0.03,,,0.06,meteohub,2013-02-24 18:41:00,
2013-02-24 13:42:00,32.7,29.8,28.79,WSW,238,0.0,2.0,89,0.03,,,0.06,meteohub,2013-02-24 18:42:00,
2013-02-24 13:45:00,32.7,29.8,28.79,WSW,238,0.0,2.0,89,0.03,,,0.06,meteohub,2013-02-24 18:45:00,
2013-02-24 13:46:00,32.5,29.7,28.79,WSW,238,0.0,0.0,89,0.03,,,0.06,meteohub,2013-02-24 18:46:00,
2013-02-24 13:48:00,32.5,29.3,28.79,WSW,255,3.0,0.0,88,0.03,,,0.06,meteohub,2013-02-24 18:48:00,
2013-02-24 13:50:00,32.4,29.1,28.79,WNW,292,4.0,0.0,88,0.03,,,0.06,meteohub,2013-02-24 18:50:00,
2013-02-24 13:53:00,32.0,29.1,28.78,WNW,292,3.0,4.0,89,0.02,,,0.06,meteohub,2013-02-24 18:53:00,
2013-02-24 13:55:00,31.8,28.9,28.78,WNW,291,2.0,4.0,89,0.02,,,0.06,meteohub,2013-02-24 18:55:00,
2013-02-24 13:56:00,31.8,28.9,28.79,WNW,292,1.0,4.0,89,0.02,,,0.06,meteohub,2013-02-24 18:56:00,
2013-02-24 13:58:00,31.6,28.8,28.78,WNW,291,2.0,4.0,89,0.02,,,0.06,meteohub,2013-02-24 18:58:00,
2013-02-24 13:59:00,31.6,28.8,28.78,NW,308,2.0,4.0,89,0.02,,,0.06,meteohub,2013-02-24 18:59:00,
2013-02-24 14:01:00,31.6,28.8,28.79,NW,308,2.0,4.0,89,0.03,,,0.07,meteohub,2013-02-24 19:01:00,
2013-02-24 14:03:00,31.6,28.8,28.78,NW,309,2.0,4.0,89,0.03,,,0.07,meteohub,2013-02-24 19:03:00,
2013-02-24 14:06:00,31.5,28.6,28.78,NW,309,2.0,4.0,89,0.03,,,0.07,meteohub,2013-02-24 19:06:00,
2013-02-24 14:09:00,31.5,28.6,28.78,NNE,23,3.0,4.0,89,0.03,,,0.07,meteohub,2013-02-24 19:09:00,
2013-02-24 14:11:00,31.5,28.4,28.78,ENE,69,4.0,7.0,88,0.02,,,0.07,meteohub,2013-02-24 19:11:00,
2013-02-24 14:12:00,31.5,28.4,28.78,NE,40,4.0,7.0,88,0.02,,,0.07,meteohub,2013-02-24 19:12:00,
2013-02-24 14:13:00,31.5,28.4,28.78,NNE,27,6.0,7.0,88,0.02,,,0.07,meteohub,2013-02-24 19:13:00,
2013-02-24 14:15:00,31.5,28.4,28.79,NNE,30,8.0,8.0,88,0.02,,,0.07,meteohub,2013-02-24 19:15:00,
2013-02-24 14:17:00,31.3,27.9,28.79,North,0,4.0,8.0,87,0.02,,,0.07,meteohub,2013-02-24 19:17:00,
2013-02-24 14:18:00,31.3,27.9,28.79,ENE,67,5.0,8.0,87,0.02,,,0.07,meteohub,2013-02-24 19:18:00,
2013-02-24 14:19:00,31.3,27.9,28.78,NE,36,5.0,8.0,87,0.02,,,0.07,meteohub,2013-02-24 19:19:00,
2013-02-24 14:20:00,31.1,27.7,28.79,NNE,15,6.0,9.0,87,0.02,,,0.07,meteohub,2013-02-24 19:20:00,
2013-02-24 14:22:00,30.9,27.5,28.79,NE,44,2.0,9.0,87,0.02,,,0.07,meteohub,2013-02-24 19:22:00,
2013-02-24 14:25:00,30.9,27.5,28.79,ENE,59,2.0,9.0,87,0.03,,,0.08,meteohub,2013-02-24 19:25:00,
2013-02-24 14:27:00,30.9,27.5,28.79,NE,53,3.0,9.0,87,0.03,,,0.08,meteohub,2013-02-24 19:27:00,
2013-02-24 14:28:00,30.9,27.5,28.79,North,355,3.0,9.0,87,0.03,,,0.08,meteohub,2013-02-24 19:28:00,
2013-02-24 14:31:00,30.7,27.3,28.79,NW,323,0.0,9.0,87,0.03,,,0.08,meteohub,2013-02-24 19:31:00,
2013-02-24 14:32:00,30.7,27.3,28.79,NNE,28,5.0,9.0,87,0.03,,,0.08,meteohub,2013-02-24 19:32:00,
2013-02-24 14:33:00,30.7,27.7,28.79,ENE,78,2.0,9.0,88,0.03,,,0.08,meteohub,2013-02-24 19:33:00,
2013-02-24 14:36:00,30.6,27.1,28.79,NNW,327,2.0,10.0,87,0.02,,,0.08,meteohub,2013-02-24 19:36:00,
2013-02-24 14:38:00,30.6,27.5,28.79,NW,317,2.0,10.0,88,0.02,,,0.08,meteohub,2013-02-24 19:38:00,
2013-02-24 14:39:00,30.6,27.5,28.79,WNW,301,5.0,10.0,88,0.02,,,0.08,meteohub,2013-02-24 19:39:00,
2013-02-24 14:42:00,30.4,27.3,28.79,NNW,335,4.0,10.0,88,0.02,,,0.08,meteohub,2013-02-24 19:42:00,
2013-02-24 14:43:00,30.2,27.1,28.79,NW,306,2.0,10.0,88,0.02,,,0.08,meteohub,2013-02-24 19:43:00,
2013-02-24 14:44:00,30.2,27.1,28.79,North,355,3.0,10.0,88,0.02,,,0.08,meteohub,2013-02-24 19:44:00,
2013-02-24 14:47:00,30.0,27.0,28.79,NNW,334,6.0,10.0,88,0.02,,,0.08,meteohub,2013-02-24 19:47:00,
2013-02-24 14:49:00,30.0,27.0,28.79,NNW,335,7.0,10.0,88,0.02,,,0.08,meteohub,2013-02-24 19:49:00,
2013-02-24 14:50:00,30.0,27.0,28.79,WNW,300,10.0,14.0,88,0.02,,,0.08,meteohub,2013-02-24 19:50:00,
2013-02-24 14:53:00,29.8,26.8,28.79,NW,317,15.0,15.0,88,0.02,,,0.08,meteohub,2013-02-24 19:53:00,
2013-02-24 14:54:00,29.8,26.8,28.79,NW,309,10.0,14.0,88,0.02,,,0.08,meteohub,2013-02-24 19:54:00,
2013-02-24 14:59:00,29.8,26.8,28.79,NNW,333,8.0,15.0,88,0.02,,,0.08,meteohub,2013-02-24 19:59:00,
2013-02-24 15:00:00,29.8,26.8,28.79,NW,308,5.0,15.0,88,0.01,,,0.08,meteohub,2013-02-24 20:00:00,
2013-02-24 15:05:00,29.7,26.6,28.80,NE,38,4.0,15.0,88,0.01,,,0.08,meteohub,2013-02-24 20:05:00,
2013-02-24 15:06:00,29.7,26.6,28.80,NW,318,5.0,15.0,88,0.01,,,0.08,meteohub,2013-02-24 20:06:00,
2013-02-24 15:10:00,29.7,26.6,28.80,NNW,348,10.0,15.0,88,0.01,,,0.08,meteohub,2013-02-24 20:10:00,
2013-02-24 15:11:00,29.7,26.6,28.80,NW,311,5.0,15.0,88,0.01,,,0.08,meteohub,2013-02-24 20:11:00,
2013-02-24 15:12:00,29.7,26.6,28.80,NW,320,7.0,15.0,88,0.01,,,0.08,meteohub,2013-02-24 20:12:00,
2013-02-24 15:13:00,29.5,26.4,28.80,NW,317,7.0,15.0,88,0.01,,,0.08,meteohub,2013-02-24 20:13:00,
2013-02-24 15:16:00,29.5,26.4,28.80,NW,319,5.0,13.0,88,0.01,,,0.08,meteohub,2013-02-24 20:16:00,
2013-02-24 15:17:00,29.5,26.4,28.80,NW,318,6.0,13.0,88,0.01,,,0.08,meteohub,2013-02-24 20:17:00,
2013-02-24 15:18:00,29.5,26.4,28.80,WNW,291,13.0,13.0,88,0.01,,,0.08,meteohub,2013-02-24 20:18:00,
2013-02-24 15:22:00,29.3,26.2,28.80,NNW,327,4.0,17.0,88,0.01,,,0.08,meteohub,2013-02-24 20:22:00,
2013-02-24 15:23:00,29.3,26.4,28.80,NNE,24,5.0,17.0,89,0.01,,,0.08,meteohub,2013-02-24 20:23:00,
2013-02-24 15:26:00,29.1,26.2,28.80,North,355,7.0,17.0,89,0.00,,,0.08,meteohub,2013-02-24 20:26:00,
2013-02-24 15:27:00,29.1,26.1,28.80,NNW,328,11.0,17.0,88,0.00,,,0.08,meteohub,2013-02-24 20:27:00,
2013-02-24 15:28:00,29.1,26.1,28.80,WNW,294,6.0,17.0,88,0.00,,,0.08,meteohub,2013-02-24 20:28:00,
2013-02-24 15:29:00,29.1,26.1,28.80,NNW,340,8.0,17.0,88,0.00,,,0.08,meteohub,2013-02-24 20:29:00,
2013-02-24 15:32:00,28.9,25.9,28.80,NW,311,2.0,17.0,88,0.00,,,0.08,meteohub,2013-02-24 20:32:00,
2013-02-24 15:33:00,28.9,26.1,28.80,NNW,332,11.0,17.0,89,0.00,,,0.08,meteohub,2013-02-24 20:33:00,
2013-02-24 15:35:00,28.9,25.9,28.80,NNW,334,5.0,17.0,88,0.00,,,0.08,meteohub,2013-02-24 20:35:00,
2013-02-24 15:37:00,28.8,25.9,28.80,NW,319,6.0,16.0,89,0.00,,,0.08,meteohub,2013-02-24 20:37:00,
2013-02-24 15:38:00,28.8,25.9,28.80,North,355,5.0,16.0,89,0.00,,,0.08,meteohub,2013-02-24 20:38:00,
2013-02-24 15:40:00,28.8,25.7,28.80,NW,308,13.0,16.0,88,0.00,,,0.08,meteohub,2013-02-24 20:40:00,
2013-02-24 15:41:00,28.8,25.7,28.80,NNW,332,8.0,16.0,88,0.00,,,0.08,meteohub,2013-02-24 20:41:00,
2013-02-24 15:46:00,28.6,25.5,28.80,WNW,285,6.0,14.0,88,0.00,,,0.08,meteohub,2013-02-24 20:46:00,
2013-02-24 15:47:00,28.8,25.7,28.80,NW,313,7.0,14.0,88,0.00,,,0.08,meteohub,2013-02-24 20:47:00,
2013-02-24 15:51:00,28.6,25.2,28.80,NW,313,14.0,14.0,87,0.01,,,0.09,meteohub,2013-02-24 20:51:00,
2013-02-24 15:53:00,28.6,25.2,28.80,NW,308,9.0,14.0,87,0.01,,,0.09,meteohub,2013-02-24 20:53:00,
2013-02-24 15:54:00,28.6,25.2,28.81,WNW,303,7.0,14.0,87,0.01,,,0.09,meteohub,2013-02-24 20:54:00,
2013-02-24 15:57:00,28.6,25.2,28.81,NNW,333,10.0,14.0,87,0.01,,,0.09,meteohub,2013-02-24 20:57:00,
2013-02-24 15:59:00,28.6,25.2,28.81,WNW,294,9.0,14.0,87,0.01,,,0.09,meteohub,2013-02-24 20:59:00,
2013-02-24 16:03:00,28.6,25.0,28.81,NW,317,6.0,14.0,86,0.01,,,0.09,meteohub,2013-02-24 21:03:00,
2013-02-24 16:06:00,28.6,25.0,28.81,NE,36,6.0,17.0,86,0.01,,,0.09,meteohub,2013-02-24 21:06:00,
2013-02-24 16:07:00,28.4,24.8,28.81,NNW,343,12.0,17.0,86,0.01,,,0.09,meteohub,2013-02-24 21:07:00,
2013-02-24 16:10:00,28.6,25.0,28.81,North,0,3.0,17.0,86,0.01,,,0.09,meteohub,2013-02-24 21:10:00,
2013-02-24 16:12:00,28.4,24.8,28.81,NW,319,9.0,17.0,86,0.01,,,0.09,meteohub,2013-02-24 21:12:00,
2013-02-24 16:13:00,28.4,24.8,28.81,NNW,329,10.0,17.0,86,0.01,,,0.09,meteohub,2013-02-24 21:13:00,
2013-02-24 16:15:00,28.4,24.8,28.81,NNW,331,11.0,17.0,86,0.01,,,0.09,meteohub,2013-02-24 21:15:00,
2013-02-24 16:17:00,28.4,24.8,28.81,North,355,9.0,19.0,86,0.01,,,0.09,meteohub,2013-02-24 21:17:00,
2013-02-24 16:18:00,28.2,24.6,28.81,NW,318,8.0,19.0,86,0.01,,,0.09,meteohub,2013-02-24 21:18:00,
2013-02-24 16:20:00,28.2,24.6,28.81,NW,326,7.0,19.0,86,0.01,,,0.09,meteohub,2013-02-24 21:20:00,
2013-02-24 16:22:00,28.2,24.6,28.81,NW,309,6.0,19.0,86,0.01,,,0.09,meteohub,2013-02-24 21:22:00,
2013-02-24 16:23:00,28.2,24.6,28.81,NW,304,9.0,19.0,86,0.01,,,0.09,meteohub,2013-02-24 21:23:00,
2013-02-24 16:28:00,28.0,24.4,28.81,WNW,296,4.0,20.0,86,0.01,,,0.09,meteohub,2013-02-24 21:28:00,
2013-02-24 16:29:00,28.0,24.4,28.81,NW,313,12.0,20.0,86,0.01,,,0.09,meteohub,2013-02-24 21:29:00,
2013-02-24 16:30:00,28.0,24.4,28.81,NW,306,13.0,20.0,86,0.01,,,0.09,meteohub,2013-02-24 21:30:00,
2013-02-24 16:33:00,28.0,24.4,28.81,North,355,8.0,20.0,86,0.01,,,0.09,meteohub,2013-02-24 21:33:00,
2013-02-24 16:34:00,28.0,24.4,28.81,NW,325,7.0,20.0,86,0.01,,,0.09,meteohub,2013-02-24 21:34:00,
2013-02-24 16:35:00,28.0,24.6,28.81,NNW,347,8.0,20.0,87,0.01,,,0.09,meteohub,2013-02-24 21:35:00,
2013-02-24 16:36:00,28.0,24.6,28.81,NNW,328,7.0,20.0,87,0.01,,,0.09,meteohub,2013-02-24 21:36:00,
2013-02-24 16:39:00,28.0,24.4,28.81,NW,314,13.0,20.0,86,0.01,,,0.09,meteohub,2013-02-24 21:39:00,
2013-02-24 16:42:00,28.0,24.4,28.81,NW,323,15.0,18.0,86,0.01,,,0.09,meteohub,2013-02-24 21:42:00,
2013-02-24 16:43:00,28.0,24.4,28.81,NNW,332,13.0,18.0,86,0.01,,,0.09,meteohub,2013-02-24 21:43:00,
2013-02-24 16:44:00,28.0,24.4,28.81,NW,319,9.0,18.0,86,0.01,,,0.09,meteohub,2013-02-24 21:44:00,
2013-02-24 16:48:00,28.0,24.4,28.81,North,355,23.0,23.0,86,0.01,,,0.09,meteohub,2013-02-24 21:48:00,
2013-02-24 16:49:00,28.0,24.4,28.81,NNW,329,9.0,18.0,86,0.01,,,0.09,meteohub,2013-02-24 21:49:00,
2013-02-24 16:50:00,28.0,24.4,28.81,NNW,338,8.0,18.0,86,0.01,,,0.09,meteohub,2013-02-24 21:50:00,
2013-02-24 16:53:00,28.0,24.4,28.81,NNW,340,13.0,23.0,86,0.00,,,0.09,meteohub,2013-02-24 21:53:00,
2013-02-24 16:56:00,28.0,24.4,28.82,NNW,334,8.0,23.0,86,0.00,,,0.09,meteohub,2013-02-24 21:56:00,
2013-02-24 16:58:00,28.0,24.4,28.82,NW,313,8.0,23.0,86,0.00,,,0.09,meteohub,2013-02-24 21:58:00,
2013-02-24 16:59:00,28.0,24.4,28.82,NNW,327,9.0,23.0,86,0.00,,,0.09,meteohub,2013-02-24 21:59:00,
2013-02-24 17:01:00,28.0,24.4,28.82,NW,309,12.0,23.0,86,0.00,,,0.09,meteohub,2013-02-24 22:01:00,
2013-02-24 17:02:00,28.0,24.1,28.82,NW,317,12.0,23.0,85,0.00,,,0.09,meteohub,2013-02-24 22:02:00,
2013-02-24 17:04:00,28.0,24.1,28.82,North,10,9.0,23.0,85,0.00,,,0.09,meteohub,2013-02-24 22:04:00,
2013-02-24 17:05:00,28.0,24.1,28.82,NW,315,16.0,23.0,85,0.00,,,0.09,meteohub,2013-02-24 22:05:00,
2013-02-24 17:06:00,28.0,24.1,28.82,NW,321,13.0,21.0,85,0.00,,,0.09,meteohub,2013-02-24 22:06:00,
2013-02-24 17:08:00,28.0,26.1,28.82,North,355,12.0,21.0,92,0.00,,,0.09,meteohub,2013-02-24 22:08:00,
2013-02-24 17:10:00,28.0,26.1,28.82,NW,317,5.0,21.0,92,0.00,,,0.09,meteohub,2013-02-24 22:10:00,
2013-02-24 17:11:00,28.0,26.1,28.82,NNW,337,6.0,21.0,92,0.00,,,0.09,meteohub,2013-02-24 22:11:00,
2013-02-24 17:12:00,28.0,26.1,28.82,WNW,303,18.0,21.0,92,0.00,,,0.09,meteohub,2013-02-24 22:12:00,
2013-02-24 17:14:00,28.0,24.1,28.82,WNW,300,14.0,21.0,85,0.00,,,0.09,meteohub,2013-02-24 22:14:00,
2013-02-24 17:16:00,28.0,24.1,28.82,WNW,291,9.0,21.0,85,0.00,,,0.09,meteohub,2013-02-24 22:16:00,
2013-02-24 17:17:00,28.0,24.1,28.82,NNE,22,12.0,21.0,85,0.00,,,0.09,meteohub,2013-02-24 22:17:00,
2013-02-24 17:19:00,28.0,24.1,28.82,NW,313,10.0,21.0,85,0.00,,,0.09,meteohub,2013-02-24 22:19:00,
2013-02-24 17:20:00,28.0,24.1,28.82,NNW,329,5.0,21.0,85,0.00,,,0.09,meteohub,2013-02-24 22:20:00,
2013-02-24 17:22:00,28.0,24.1,28.82,NW,315,7.0,21.0,85,0.00,,,0.09,meteohub,2013-02-24 22:22:00,
2013-02-24 17:25:00,28.0,24.1,28.82,NNW,347,6.0,21.0,85,0.00,,,0.09,meteohub,2013-02-24 22:25:00,
2013-02-24 17:27:00,28.0,24.1,28.82,NNW,333,10.0,21.0,85,0.00,,,0.09,meteohub,2013-02-24 22:27:00,
2013-02-24 17:30:00,28.0,24.1,28.83,NNW,327,12.0,21.0,85,0.00,,,0.09,meteohub,2013-02-24 22:30:00,
2013-02-24 17:32:00,28.0,24.1,28.83,NW,316,8.0,20.0,85,0.00,,,0.09,meteohub,2013-02-24 22:32:00,
2013-02-24 17:33:00,28.0,23.9,28.82,NNW,344,10.0,20.0,84,0.00,,,0.09,meteohub,2013-02-24 22:33:00,
2013-02-24 17:35:00,28.0,24.1,28.83,NW,314,11.0,20.0,85,0.00,,,0.09,meteohub,2013-02-24 22:35:00,
2013-02-24 17:37:00,28.0,24.1,28.83,NNW,328,6.0,20.0,85,0.00,,,0.09,meteohub,2013-02-24 22:37:00,
2013-02-24 17:38:00,28.0,24.1,28.83,NW,314,5.0,20.0,85,0.00,,,0.09,meteohub,2013-02-24 22:38:00,
2013-02-24 17:39:00,28.0,24.1,28.83,NNW,333,12.0,20.0,85,0.00,,,0.09,meteohub,2013-02-24 22:39:00,
2013-02-24 17:41:00,28.0,26.1,28.83,NW,318,12.0,20.0,92,0.00,,,0.09,meteohub,2013-02-24 22:41:00,
2013-02-24 17:43:00,28.0,24.4,28.83,NW,304,17.0,20.0,86,0.00,,,0.09,meteohub,2013-02-24 22:43:00,
2013-02-24 17:44:00,27.9,24.3,28.83,NNW,333,12.0,20.0,86,0.00,,,0.09,meteohub,2013-02-24 22:44:00,
2013-02-24 17:46:00,27.9,23.9,28.83,NNW,336,17.0,20.0,85,0.00,,,0.09,meteohub,2013-02-24 22:46:00,
2013-02-24 17:47:00,27.9,23.9,28.83,NNW,334,13.0,20.0,85,0.00,,,0.09,meteohub,2013-02-24 22:47:00,
2013-02-24 17:49:00,28.0,24.1,28.83,NW,312,10.0,20.0,85,0.00,,,0.09,meteohub,2013-02-24 22:49:00,
2013-02-24 17:51:00,28.0,24.1,28.83,NW,317,16.0,20.0,85,0.00,,,0.09,meteohub,2013-02-24 22:51:00,
2013-02-24 17:52:00,28.0,24.1,28.83,NW,314,12.0,20.0,85,0.00,,,0.09,meteohub,2013-02-24 22:52:00,
2013-02-24 17:53:00,28.0,24.1,28.83,NNW,339,7.0,20.0,85,0.00,,,0.09,meteohub,2013-02-24 22:53:00,
2013-02-24 17:55:00,28.0,24.1,28.83,NW,312,11.0,20.0,85,0.00,,,0.09,meteohub,2013-02-24 22:55:00,
2013-02-24 17:57:00,27.9,23.9,28.83,WNW,301,10.0,20.0,85,0.00,,,0.09,meteohub,2013-02-24 22:57:00,
2013-02-24 18:00:00,28.0,24.1,28.84,NW,321,9.0,20.0,85,0.00,,,0.09,meteohub,2013-02-24 23:00:00,
2013-02-24 18:02:00,28.0,24.1,28.84,North,350,11.0,19.0,85,0.00,,,0.09,meteohub,2013-02-24 23:02:00,
2013-02-24 18:03:00,28.0,24.1,28.84,North,5,11.0,19.0,85,0.00,,,0.09,meteohub,2013-02-24 23:03:00,
2013-02-24 18:05:00,28.0,23.9,28.84,North,355,9.0,21.0,84,0.00,,,0.09,meteohub,2013-02-24 23:05:00,
2013-02-24 18:06:00,28.0,23.9,28.84,NW,326,13.0,21.0,84,0.00,,,0.09,meteohub,2013-02-24 23:06:00,
2013-02-24 18:08:00,28.0,23.9,28.84,NNW,327,20.0,21.0,84,0.00,,,0.09,meteohub,2013-02-24 23:08:00,
2013-02-24 18:11:00,28.0,24.1,28.84,North,0,10.0,22.0,85,0.00,,,0.09,meteohub,2013-02-24 23:11:00,
2013-02-24 18:12:00,28.0,24.1,28.84,NNW,342,9.0,22.0,85,0.00,,,0.09,meteohub,2013-02-24 23:12:00,
2013-02-24 18:13:00,27.9,24.3,28.84,NW,324,14.0,22.0,86,0.00,,,0.09,meteohub,2013-02-24 23:13:00,
2013-02-24 18:15:00,27.9,23.9,28.84,NW,313,12.0,22.0,85,0.00,,,0.09,meteohub,2013-02-24 23:15:00,
2013-02-24 18:16:00,27.9,23.9,28.84,NNW,336,10.0,22.0,85,0.00,,,0.09,meteohub,2013-02-24 23:16:00,
2013-02-24 18:17:00,27.9,23.9,28.84,NW,307,10.0,22.0,85,0.00,,,0.09,meteohub,2013-02-24 23:17:00,
2013-02-24 18:20:00,27.9,23.7,28.84,NW,304,8.0,22.0,84,0.00,,,0.09,meteohub,2013-02-24 23:20:00,
2013-02-24 18:22:00,27.9,23.7,28.84,NW,313,4.0,22.0,84,0.00,,,0.09,meteohub,2013-02-24 23:22:00,
2013-02-24 18:23:00,27.9,23.7,28.84,North,350,13.0,22.0,84,0.00,,,0.09,meteohub,2013-02-24 23:23:00,
2013-02-24 18:27:00,27.9,23.4,28.85,North,0,12.0,21.0,83,0.00,,,0.09,meteohub,2013-02-24 23:27:00,
2013-02-24 18:28:00,27.9,23.4,28.84,NW,312,6.0,21.0,83,0.00,,,0.09,meteohub,2013-02-24 23:28:00,
2013-02-24 18:29:00,27.9,23.4,28.84,North,355,9.0,21.0,83,0.00,,,0.09,meteohub,2013-02-24 23:29:00,
2013-02-24 18:33:00,28.0,23.2,28.85,NNW,332,7.0,21.0,82,0.00,,,0.09,meteohub,2013-02-24 23:33:00,
2013-02-24 18:34:00,28.0,23.2,28.85,NW,319,9.0,21.0,82,0.00,,,0.09,meteohub,2013-02-24 23:34:00,
2013-02-24 18:35:00,28.0,23.5,28.85,NNW,329,9.0,21.0,83,0.00,,,0.09,meteohub,2013-02-24 23:35:00,
2013-02-24 18:39:00,28.0,23.5,28.86,NW,309,9.0,21.0,83,0.00,,,0.09,meteohub,2013-02-24 23:39:00,
2013-02-24 18:40:00,28.0,23.5,28.85,North,0,8.0,21.0,83,0.00,,,0.09,meteohub,2013-02-24 23:40:00,
2013-02-24 18:41:00,28.0,23.9,28.85,WNW,300,10.0,20.0,84,0.00,,,0.09,meteohub,2013-02-24 23:41:00,
2013-02-24 18:45:00,28.0,23.9,28.86,NW,304,11.0,20.0,84,0.00,,,0.09,meteohub,2013-02-24 23:45:00,
2013-02-24 18:47:00,28.0,23.9,28.86,North,0,6.0,20.0,84,0.00,,,0.09,meteohub,2013-02-24 23:47:00,
2013-02-24 18:48:00,28.0,23.9,28.86,NW,319,6.0,20.0,84,0.00,,,0.09,meteohub,2013-02-24 23:48:00,
2013-02-24 18:51:00,28.0,23.5,28.86,NW,313,5.0,20.0,83,0.00,,,0.09,meteohub,2013-02-24 23:51:00,
2013-02-24 18:52:00,28.0,23.9,28.86,NW,313,13.0,20.0,84,0.00,,,0.09,meteohub,2013-02-24 23:52:00,
2013-02-24 18:53:00,28.0,23.5,28.86,NW,323,12.0,20.0,83,0.00,,,0.09,meteohub,2013-02-24 23:53:00,
2013-02-24 18:56:00,28.0,23.5,28.86,WNW,301,7.0,20.0,83,0.00,,,0.09,meteohub,2013-02-24 23:56:00,
2013-02-24 18:57:00,28.0,23.5,28.86,NW,305,14.0,20.0,83,0.00,,,0.09,meteohub,2013-02-24 23:57:00,
2013-02-24 18:58:00,28.0,23.9,28.86,NNW,327,11.0,20.0,84,0.00,,,0.09,meteohub,2013-02-24 23:58:00,
2013-02-24 18:59:00,28.0,23.9,28.86,NNW,346,13.0,20.0,84,0.00,,,0.09,meteohub,2013-02-24 23:59:00,
2013-02-24 19:02:00,28.0,23.9,28.87,WNW,303,9.0,18.0,84,0.00,,,0.09,meteohub,2013-02-25 00:02:00,
2013-02-24 19:03:00,28.0,23.9,28.86,NNW,336,6.0,18.0,84,0.00,,,0.09,meteohub,2013-02-25 00:03:00,
2013-02-24 19:05:00,28.0,23.9,28.87,WNW,293,4.0,18.0,84,0.00,,,0.09,meteohub,2013-02-25 00:05:00,
2013-02-24 19:09:00,28.0,23.5,28.87,North,355,9.0,18.0,83,0.00,,,0.09,meteohub,2013-02-25 00:09:00,
2013-02-24 19:10:00,28.0,23.5,28.87,WNW,300,10.0,17.0,83,0.00,,,0.09,meteohub,2013-02-25 00:10:00,
2013-02-24 19:11:00,28.0,23.5,28.87,NNW,327,11.0,17.0,83,0.00,,,0.09,meteohub,2013-02-25 00:11:00,
2013-02-24 19:12:00,28.0,23.5,28.87,NNW,334,10.0,17.0,83,0.00,,,0.09,meteohub,2013-02-25 00:12:00,
2013-02-24 19:14:00,28.0,23.5,28.87,NW,321,11.0,17.0,83,0.00,,,0.09,meteohub,2013-02-25 00:14:00,
2013-02-24 19:16:00,28.0,23.9,28.87,NNW,336,11.0,20.0,84,0.00,,,0.09,meteohub,2013-02-25 00:16:00,
2013-02-24 19:18:00,27.9,23.7,28.87,NNW,333,5.0,20.0,84,0.00,,,0.09,meteohub,2013-02-25 00:18:00,
2013-02-24 19:19:00,27.9,23.9,28.87,WNW,300,8.0,20.0,85,0.00,,,0.09,meteohub,2013-02-25 00:19:00,
2013-02-24 19:21:00,27.9,23.9,28.87,NW,309,10.0,20.0,85,0.00,,,0.09,meteohub,2013-02-25 00:21:00,
2013-02-24 19:22:00,27.9,23.9,28.87,WNW,290,6.0,20.0,85,0.00,,,0.09,meteohub,2013-02-25 00:22:00,
2013-02-24 19:24:00,27.9,23.9,28.87,NW,318,7.0,20.0,85,0.00,,,0.09,meteohub,2013-02-25 00:24:00,
2013-02-24 19:25:00,27.9,23.9,28.87,NW,323,3.0,20.0,85,0.00,,,0.09,meteohub,2013-02-25 00:25:00,
2013-02-24 19:26:00,28.0,24.1,28.87,WNW,299,7.0,20.0,85,0.00,,,0.09,meteohub,2013-02-25 00:26:00,
2013-02-24 19:27:00,27.9,23.9,28.87,NNW,329,7.0,20.0,85,0.00,,,0.09,meteohub,2013-02-25 00:27:00,
2013-02-24 19:29:00,28.0,23.9,28.87,NNW,332,11.0,20.0,84,0.00,,,0.09,meteohub,2013-02-25 00:29:00,
2013-02-24 19:31:00,28.0,23.9,28.87,North,5,4.0,18.0,84,0.00,,,0.09,meteohub,2013-02-25 00:31:00,
2013-02-24 19:32:00,28.0,23.9,28.87,North,355,8.0,18.0,84,0.00,,,0.09,meteohub,2013-02-25 00:32:00,
2013-02-24 19:34:00,28.0,24.1,28.87,NNW,327,12.0,18.0,85,0.00,,,0.09,meteohub,2013-02-25 00:34:00,
2013-02-24 19:36:00,28.0,23.9,28.87,NW,319,10.0,18.0,84,0.00,,,0.09,meteohub,2013-02-25 00:36:00,
2013-02-24 19:37:00,28.0,23.9,28.87,NNE,21,5.0,18.0,84,0.00,,,0.09,meteohub,2013-02-25 00:37:00,
2013-02-24 19:38:00,28.0,23.9,28.87,NNW,332,13.0,18.0,84,0.00,,,0.09,meteohub,2013-02-25 00:38:00,
2013-02-24 19:39:00,28.0,23.9,28.87,NW,321,12.0,18.0,84,0.00,,,0.09,meteohub,2013-02-25 00:39:00,
2013-02-24 19:44:00,28.0,23.9,28.87,NNW,344,8.0,19.0,84,0.00,,,0.09,meteohub,2013-02-25 00:44:00,
2013-02-24 19:45:00,28.0,23.9,28.87,WNW,302,8.0,19.0,84,0.00,,,0.09,meteohub,2013-02-25 00:45:00,
2013-02-24 19:47:00,28.2,24.1,28.87,NNW,337,5.0,19.0,84,0.00,,,0.09,meteohub,2013-02-25 00:47:00,
2013-02-24 19:50:00,28.2,24.1,28.87,NW,325,9.0,19.0,84,0.00,,,0.09,meteohub,2013-02-25 00:50:00,
2013-02-24 19:51:00,28.2,24.1,28.87,NW,311,5.0,19.0,84,0.00,,,0.09,meteohub,2013-02-25 00:51:00,
2013-02-24 19:52:00,28.2,24.1,28.87,NNW,336,8.0,19.0,84,0.00,,,0.09,meteohub,2013-02-25 00:52:00,
2013-02-24 19:53:00,28.2,24.3,28.88,NNW,334,8.0,19.0,85,0.00,,,0.09,meteohub,2013-02-25 00:53:00,
2013-02-24 19:57:00,28.4,24.4,28.88,NW,325,7.0,16.0,85,0.00,,,0.09,meteohub,2013-02-25 00:57:00,
2013-02-24 19:59:00,28.4,24.4,28.88,NW,313,6.0,16.0,85,0.00,,,0.09,meteohub,2013-02-25 00:59:00,
2013-02-24 20:02:00,28.4,24.8,28.88,NNE,13,6.0,17.0,86,0.00,,,0.09,meteohub,2013-02-25 01:02:00,
2013-02-24 20:03:00,28.4,24.8,28.88,NNW,340,13.0,17.0,86,0.00,,,0.09,meteohub,2013-02-25 01:03:00,
2013-02-24 20:07:00,28.2,24.6,28.88,NW,319,7.0,17.0,86,0.00,,,0.09,meteohub,2013-02-25 01:07:00,
2013-02-24 20:08:00,28.2,24.6,28.88,NE,36,4.0,17.0,86,0.00,,,0.09,meteohub,2013-02-25 01:08:00,
2013-02-24 20:11:00,28.2,24.8,28.88,NW,324,6.0,17.0,87,0.00,,,0.09,meteohub,2013-02-25 01:11:00,
2013-02-24 20:13:00,28.2,24.8,28.88,NNW,329,5.0,17.0,87,0.00,,,0.09,meteohub,2013-02-25 01:13:00,
2013-02-24 20:14:00,28.2,24.8,28.88,NW,304,3.0,17.0,87,0.00,,,0.09,meteohub,2013-02-25 01:14:00,
2013-02-24 20:17:00,28.2,24.6,28.88,NNW,346,5.0,17.0,86,0.00,,,0.09,meteohub,2013-02-25 01:17:00,
2013-02-24 20:19:00,28.2,24.6,28.88,NNW,340,6.0,17.0,86,0.00,,,0.09,meteohub,2013-02-25 01:19:00,
2013-02-24 20:20:00,28.2,24.6,28.88,NNW,330,9.0,17.0,86,0.00,,,0.09,meteohub,2013-02-25 01:20:00,
2013-02-24 20:22:00,28.6,24.4,28.89,NW,326,9.0,17.0,84,0.00,,,0.09,meteohub,2013-02-25 01:22:00,
2013-02-24 20:24:00,28.6,24.6,28.89,NW,319,10.0,17.0,85,0.00,,,0.09,meteohub,2013-02-25 01:24:00,
2013-02-24 20:25:00,28.6,24.6,28.89,NW,308,6.0,17.0,85,0.00,,,0.09,meteohub,2013-02-25 01:25:00,
2013-02-24 20:26:00,28.6,24.6,28.89,NNW,337,6.0,17.0,85,0.00,,,0.09,meteohub,2013-02-25 01:26:00,
2013-02-24 20:29:00,28.6,24.6,28.89,North,355,14.0,17.0,85,0.00,,,0.09,meteohub,2013-02-25 01:29:00,
2013-02-24 20:30:00,28.6,24.6,28.89,WNW,300,4.0,17.0,85,0.00,,,0.09,meteohub,2013-02-25 01:30:00,
2013-02-24 20:31:00,28.8,24.6,28.89,NW,306,9.0,17.0,84,0.00,,,0.09,meteohub,2013-02-25 01:31:00,
2013-02-24 20:33:00,28.8,24.8,28.89,WNW,296,5.0,17.0,85,0.00,,,0.09,meteohub,2013-02-25 01:33:00,
2013-02-24 20:34:00,28.8,24.8,28.89,North,355,8.0,17.0,85,0.00,,,0.09,meteohub,2013-02-25 01:34:00,
2013-02-24 20:37:00,28.8,24.8,28.89,NW,308,11.0,19.0,85,0.00,,,0.09,meteohub,2013-02-25 01:37:00,
2013-02-24 20:39:00,28.8,24.8,28.89,NNW,338,6.0,19.0,85,0.00,,,0.09,meteohub,2013-02-25 01:39:00,
2013-02-24 20:40:00,28.8,24.8,28.89,NNW,338,6.0,19.0,85,0.00,,,0.09,meteohub,2013-02-25 01:40:00,
2013-02-24 20:45:00,28.8,24.6,28.90,North,355,11.0,19.0,84,0.00,,,0.09,meteohub,2013-02-25 01:45:00,
2013-02-24 20:48:00,28.9,24.8,28.90,NNW,327,8.0,19.0,84,0.00,,,0.09,meteohub,2013-02-25 01:48:00,
2013-02-24 20:50:00,28.9,24.8,28.90,NW,325,11.0,19.0,84,0.00,,,0.09,meteohub,2013-02-25 01:50:00,
2013-02-24 20:51:00,28.9,24.8,28.90,North,5,5.0,19.0,84,0.00,,,0.09,meteohub,2013-02-25 01:51:00,
2013-02-24 20:52:00,28.9,25.0,28.90,North,0,10.0,19.0,85,0.00,,,0.09,meteohub,2013-02-25 01:52:00,
2013-02-24 20:54:00,28.8,24.8,28.90,NW,313,7.0,19.0,85,0.00,,,0.09,meteohub,2013-02-25 01:54:00,
2013-02-24 20:57:00,28.8,24.8,28.90,NW,307,16.0,19.0,85,0.00,,,0.09,meteohub,2013-02-25 01:57:00,
2013-02-24 20:59:00,28.8,24.8,28.90,NNW,335,9.0,19.0,85,0.00,,,0.09,meteohub,2013-02-25 01:59:00,
2013-02-24 21:02:00,28.8,24.8,28.90,NW,315,11.0,18.0,85,0.00,,,0.09,meteohub,2013-02-25 02:02:00,
2013-02-24 21:04:00,28.8,24.8,28.90,NNW,332,9.0,18.0,85,0.00,,,0.09,meteohub,2013-02-25 02:04:00,
2013-02-24 21:05:00,28.8,24.8,28.90,NW,316,10.0,21.0,85,0.00,,,0.09,meteohub,2013-02-25 02:05:00,
2013-02-24 21:09:00,28.9,25.0,28.90,NNW,341,8.0,21.0,85,0.00,,,0.09,meteohub,2013-02-25 02:09:00,
2013-02-24 21:10:00,28.9,25.0,28.90,NNW,329,9.0,21.0,85,0.00,,,0.09,meteohub,2013-02-25 02:10:00,
2013-02-24 21:12:00,28.9,25.0,28.90,NNW,340,11.0,21.0,85,0.00,,,0.09,meteohub,2013-02-25 02:12:00,
2013-02-24 21:15:00,28.9,25.0,28.90,WNW,294,8.0,21.0,85,0.00,,,0.09,meteohub,2013-02-25 02:15:00,
2013-02-24 21:16:00,28.9,25.0,28.90,NNW,331,8.0,21.0,85,0.00,,,0.09,meteohub,2013-02-25 02:16:00,
2013-02-24 21:17:00,28.9,25.0,28.90,North,5,13.0,21.0,85,0.00,,,0.09,meteohub,2013-02-25 02:17:00,
2013-02-24 21:18:00,28.9,25.0,28.90,NW,324,11.0,21.0,85,0.00,,,0.09,meteohub,2013-02-25 02:18:00,
2013-02-24 21:22:00,28.9,25.0,28.90,NNW,348,10.0,19.0,85,0.00,,,0.09,meteohub,2013-02-25 02:22:00,
2013-02-24 21:23:00,28.9,25.0,28.90,NW,308,11.0,19.0,85,0.00,,,0.09,meteohub,2013-02-25 02:23:00,
2013-02-24 21:24:00,28.9,25.0,28.90,NW,320,7.0,19.0,85,0.00,,,0.09,meteohub,2013-02-25 02:24:00,
2013-02-24 21:25:00,28.9,25.0,28.90,NNW,337,10.0,19.0,85,0.00,,,0.09,meteohub,2013-02-25 02:25:00,
2013-02-24 21:28:00,28.9,25.0,28.90,NW,324,6.0,19.0,85,0.00,,,0.09,meteohub,2013-02-25 02:28:00,
2013-02-24 21:29:00,28.9,25.0,28.90,NNW,344,8.0,19.0,85,0.00,,,0.09,meteohub,2013-02-25 02:29:00,
2013-02-24 21:30:00,28.9,25.0,28.90,NW,306,12.0,19.0,85,0.00,,,0.09,meteohub,2013-02-25 02:30:00,
2013-02-24 21:33:00,28.9,25.0,28.90,NNW,338,8.0,17.0,85,0.00,,,0.09,meteohub,2013-02-25 02:33:00,
2013-02-24 21:34:00,28.9,25.0,28.90,NNW,336,8.0,17.0,85,0.00,,,0.09,meteohub,2013-02-25 02:34:00,
2013-02-24 21:35:00,28.9,25.0,28.90,NNW,338,12.0,17.0,85,0.00,,,0.09,meteohub,2013-02-25 02:35:00,
2013-02-24 21:37:00,28.9,25.3,28.90,NW,323,10.0,17.0,86,0.00,,,0.09,meteohub,2013-02-25 02:37:00,
2013-02-24 21:39:00,28.8,25.2,28.90,NW,315,6.0,17.0,86,0.00,,,0.09,meteohub,2013-02-25 02:39:00,
2013-02-24 21:40:00,28.8,25.2,28.90,NNW,333,13.0,17.0,86,0.00,,,0.09,meteohub,2013-02-25 02:40:00,
2013-02-24 21:44:00,28.8,25.2,28.90,NW,310,11.0,18.0,86,0.00,,,0.09,meteohub,2013-02-25 02:44:00,
2013-02-24 21:46:00,28.8,26.8,28.90,North,9,5.0,18.0,92,0.00,,,0.09,meteohub,2013-02-25 02:46:00,
2013-02-24 21:49:00,28.8,25.2,28.90,NNW,333,14.0,18.0,86,0.00,,,0.09,meteohub,2013-02-25 02:49:00,
2013-02-24 21:51:00,28.8,25.2,28.90,NNW,344,12.0,18.0,86,0.00,,,0.09,meteohub,2013-02-25 02:51:00,
2013-02-24 21:52:00,28.8,25.2,28.90,North,355,5.0,18.0,86,0.00,,,0.09,meteohub,2013-02-25 02:52:00,
2013-02-24 21:55:00,28.8,25.2,28.90,NNW,340,5.0,18.0,86,0.00,,,0.09,meteohub,2013-02-25 02:55:00,
2013-02-24 21:56:00,28.8,25.2,28.90,NNW,338,7.0,16.0,86,0.00,,,0.09,meteohub,2013-02-25 02:56:00,
2013-02-24 21:58:00,28.8,25.2,28.90,NW,321,6.0,16.0,86,0.00,,,0.09,meteohub,2013-02-25 02:58:00,
2013-02-24 22:01:00,28.8,25.3,28.91,North,355,9.0,16.0,87,0.00,,,0.09,meteohub,2013-02-25 03:01:00,
2013-02-24 22:02:00,28.8,25.3,28.91,NNW,334,5.0,16.0,87,0.00,,,0.09,meteohub,2013-02-25 03:02:00,
2013-02-24 22:03:00,28.8,25.3,28.90,NNW,344,12.0,16.0,87,0.00,,,0.09,meteohub,2013-02-25 03:03:00,
2013-02-24 22:04:00,28.8,25.3,28.91,NNW,340,13.0,16.0,87,0.00,,,0.09,meteohub,2013-02-25 03:04:00,
2013-02-24 22:07:00,28.8,25.3,28.91,North,0,8.0,21.0,87,0.00,,,0.09,meteohub,2013-02-25 03:07:00,
2013-02-24 22:08:00,28.8,25.3,28.91,NW,325,5.0,21.0,87,0.00,,,0.09,meteohub,2013-02-25 03:08:00,
2013-02-24 22:10:00,28.8,25.3,28.91,NNW,327,6.0,21.0,87,0.00,,,0.09,meteohub,2013-02-25 03:10:00,
2013-02-24 22:12:00,28.8,25.3,28.91,NW,317,5.0,21.0,87,0.00,,,0.09,meteohub,2013-02-25 03:12:00,
2013-02-24 22:14:00,28.8,25.2,28.91,North,5,13.0,21.0,86,0.00,,,0.09,meteohub,2013-02-25 03:14:00,
2013-02-24 22:16:00,28.8,25.2,28.91,NW,322,5.0,21.0,86,0.00,,,0.09,meteohub,2013-02-25 03:16:00,
2013-02-24 22:17:00,28.8,25.2,28.91,WNW,286,3.0,21.0,86,0.00,,,0.09,meteohub,2013-02-25 03:17:00,
2013-02-24 22:19:00,28.8,25.3,28.91,NW,313,4.0,21.0,87,0.00,,,0.09,meteohub,2013-02-25 03:19:00,
2013-02-24 22:21:00,28.8,25.3,28.91,NW,312,6.0,17.0,87,0.00,,,0.09,meteohub,2013-02-25 03:21:00,
2013-02-24 22:22:00,28.8,25.3,28.91,NW,307,7.0,17.0,87,0.00,,,0.09,meteohub,2013-02-25 03:22:00,
2013-02-24 22:24:00,28.8,25.2,28.91,NW,321,7.0,17.0,86,0.00,,,0.09,meteohub,2013-02-25 03:24:00,
2013-02-24 22:25:00,28.8,25.2,28.91,NNW,338,9.0,17.0,86,0.00,,,0.09,meteohub,2013-02-25 03:25:00,
2013-02-24 22:26:00,28.8,25.2,28.91,NNW,345,6.0,17.0,86,0.00,,,0.09,meteohub,2013-02-25 03:26:00,
2013-02-24 22:28:00,28.8,25.2,28.92,NW,323,7.0,17.0,86,0.00,,,0.09,meteohub,2013-02-25 03:28:00,
2013-02-24 22:29:00,28.8,25.2,28.91,NNW,331,2.0,17.0,86,0.00,,,0.09,meteohub,2013-02-25 03:29:00,
2013-02-24 22:31:00,28.8,25.3,28.91,NW,309,9.0,16.0,87,0.00,,,0.09,meteohub,2013-02-25 03:31:00,
2013-02-24 22:32:00,28.8,25.3,28.91,NW,309,4.0,16.0,87,0.00,,,0.09,meteohub,2013-02-25 03:32:00,
2013-02-24 22:33:00,28.8,25.3,28.92,NNW,333,8.0,16.0,87,0.00,,,0.09,meteohub,2013-02-25 03:33:00,
2013-02-24 22:34:00,28.8,25.3,28.91,NW,306,11.0,16.0,87,0.00,,,0.09,meteohub,2013-02-25 03:34:00,
2013-02-24 22:37:00,28.6,25.5,28.92,NW,326,13.0,17.0,88,0.00,,,0.09,meteohub,2013-02-25 03:37:00,
2013-02-24 22:38:00,28.6,25.5,28.92,NNW,339,10.0,17.0,88,0.00,,,0.09,meteohub,2013-02-25 03:38:00,
2013-02-24 22:39:00,28.6,25.5,28.92,NW,322,10.0,17.0,88,0.00,,,0.09,meteohub,2013-02-25 03:39:00,
2013-02-24 22:42:00,28.6,25.5,28.92,NNE,22,12.0,18.0,88,0.00,,,0.09,meteohub,2013-02-25 03:42:00,
2013-02-24 22:44:00,28.6,25.5,28.92,North,355,8.0,18.0,88,0.00,,,0.09,meteohub,2013-02-25 03:44:00,
2013-02-24 22:45:00,28.6,25.5,28.92,WNW,291,9.0,18.0,88,0.00,,,0.09,meteohub,2013-02-25 03:45:00,
2013-02-24 22:46:00,28.6,25.5,28.92,NNE,15,10.0,18.0,88,0.00,,,0.09,meteohub,2013-02-25 03:46:00,
2013-02-24 22:48:00,28.6,25.5,28.92,North,5,10.0,18.0,88,0.00,,,0.09,meteohub,2013-02-25 03:48:00,
2013-02-24 22:50:00,28.6,25.5,28.92,NNW,331,8.0,18.0,88,0.00,,,0.09,meteohub,2013-02-25 03:50:00,
2013-02-24 22:51:00,28.6,25.5,28.92,NNW,343,11.0,18.0,88,0.00,,,0.09,meteohub,2013-02-25 03:51:00,
2013-02-24 22:53:00,28.6,25.5,28.92,NNW,329,10.0,18.0,88,0.00,,,0.09,meteohub,2013-02-25 03:53:00,
2013-02-24 22:54:00,28.6,25.5,28.92,NW,324,9.0,18.0,88,0.00,,,0.09,meteohub,2013-02-25 03:54:00,
2013-02-24 22:55:00,28.6,25.7,28.92,NW,325,13.0,20.0,89,0.00,,,0.09,meteohub,2013-02-25 03:55:00,
2013-02-24 22:57:00,28.4,25.5,28.92,NNW,346,11.0,20.0,89,0.00,,,0.09,meteohub,2013-02-25 03:57:00,
2013-02-24 22:59:00,28.2,25.7,28.92,NNE,16,4.0,20.0,90,0.00,,,0.09,meteohub,2013-02-25 03:59:00,
2013-02-24 23:00:00,28.2,25.7,28.92,NNE,23,8.0,20.0,90,0.00,,,0.09,meteohub,2013-02-25 04:00:00,
2013-02-24 23:01:00,28.2,25.7,28.93,North,351,14.0,20.0,90,0.00,,,0.09,meteohub,2013-02-25 04:01:00,
2013-02-24 23:03:00,28.2,25.7,28.92,NW,315,19.0,20.0,90,0.00,,,0.09,meteohub,2013-02-25 04:03:00,
2013-02-24 23:06:00,28.2,25.7,28.92,NW,323,17.0,20.0,90,0.00,,,0.09,meteohub,2013-02-25 04:06:00,
2013-02-24 23:08:00,28.2,25.7,28.92,WNW,303,6.0,20.0,90,0.00,,,0.09,meteohub,2013-02-25 04:08:00,
2013-02-24 23:09:00,28.2,25.7,28.92,NNW,346,7.0,20.0,90,0.00,,,0.09,meteohub,2013-02-25 04:09:00,
2013-02-24 23:11:00,28.2,25.7,28.92,NW,306,13.0,21.0,90,0.00,,,0.09,meteohub,2013-02-25 04:11:00,
2013-02-24 23:12:00,28.2,25.7,28.92,NNE,19,16.0,21.0,90,0.00,,,0.09,meteohub,2013-02-25 04:12:00,
2013-02-24 23:15:00,28.2,25.7,28.92,NNW,336,13.0,21.0,90,0.00,,,0.09,meteohub,2013-02-25 04:15:00,
2013-02-24 23:17:00,28.2,25.7,28.92,NW,324,7.0,21.0,90,0.00,,,0.09,meteohub,2013-02-25 04:17:00,
2013-02-24 23:21:00,28.2,25.7,28.92,WNW,302,14.0,21.0,90,0.00,,,0.09,meteohub,2013-02-25 04:21:00,
2013-02-24 23:23:00,28.2,25.7,28.93,NNW,348,8.0,21.0,90,0.00,,,0.09,meteohub,2013-02-25 04:23:00,
2013-02-24 23:24:00,28.2,25.7,28.93,NNE,28,9.0,21.0,90,0.00,,,0.09,meteohub,2013-02-25 04:24:00,
2013-02-24 23:26:00,28.2,25.7,28.93,North,5,10.0,21.0,90,0.00,,,0.09,meteohub,2013-02-25 04:26:00,
2013-02-24 23:29:00,28.2,25.3,28.93,North,0,8.0,21.0,89,0.00,,,0.09,meteohub,2013-02-25 04:29:00,
2013-02-24 23:30:00,28.2,25.3,28.93,NW,319,4.0,21.0,89,0.00,,,0.09,meteohub,2013-02-25 04:30:00,
2013-02-24 23:32:00,28.2,25.3,28.93,NW,325,18.0,23.0,89,0.00,,,0.09,meteohub,2013-02-25 04:32:00,
2013-02-24 23:35:00,28.2,25.3,28.93,WNW,300,10.0,23.0,89,0.00,,,0.09,meteohub,2013-02-25 04:35:00,
2013-02-24 23:36:00,28.2,25.3,28.93,NNW,335,13.0,23.0,89,0.00,,,0.09,meteohub,2013-02-25 04:36:00,
2013-02-24 23:37:00,28.2,25.3,28.93,NNW,329,6.0,23.0,89,0.00,,,0.09,meteohub,2013-02-25 04:37:00,
2013-02-24 23:39:00,28.2,25.3,28.93,NNW,332,9.0,23.0,89,0.00,,,0.09,meteohub,2013-02-25 04:39:00,
2013-02-24 23:41:00,28.2,25.3,28.93,West,274,4.0,23.0,89,0.00,,,0.09,meteohub,2013-02-25 04:41:00,
2013-02-24 23:42:00,28.2,25.3,28.93,NNW,341,8.0,23.0,89,0.00,,,0.09,meteohub,2013-02-25 04:42:00,
2013-02-24 23:44:00,28.2,25.2,28.93,NNW,336,5.0,23.0,88,0.00,,,0.09,meteohub,2013-02-25 04:44:00,
2013-02-24 23:47:00,28.2,25.2,28.93,NNW,339,6.0,21.0,88,0.00,,,0.09,meteohub,2013-02-25 04:47:00,
2013-02-24 23:48:00,28.2,25.2,28.93,NNW,331,4.0,21.0,88,0.00,,,0.09,meteohub,2013-02-25 04:48:00,
2013-02-24 23:49:00,28.2,25.3,28.94,NW,316,7.0,21.0,89,0.00,,,0.09,meteohub,2013-02-25 04:49:00,
2013-02-24 23:50:00,28.2,25.2,28.94,NNW,327,16.0,21.0,88,0.00,,,0.09,meteohub,2013-02-25 04:50:00,
2013-02-24 23:52:00,28.2,25.3,28.94,NW,305,11.0,21.0,89,0.00,,,0.09,meteohub,2013-02-25 04:52:00,
2013-02-24 23:53:00,28.2,25.2,28.94,North,355,12.0,21.0,88,0.00,,,0.09,meteohub,2013-02-25 04:53:00,
2013-02-24 23:55:00,28.2,25.2,28.94,NW,324,11.0,21.0,88,0.00,,,0.09,meteohub,2013-02-25 04:55:00,
2013-02-24 23:57:00,28.2,25.2,28.94,NW,311,7.0,21.0,88,0.00,,,0.09,meteohub,2013-02-25 04:57:00,
2013-02-24 23:58:00,28.2,25.2,28.94,NNE,15,8.0,21.0,88,0.00,,,0.09,meteohub,2013-02-25 04:58:00,